Time,TemperatureF,DewpointF,PressureIn,WindDirection,WindDirectionDegrees,WindSpeedMPH,WindSpeedGustMPH,Humidity,HourlyPrecipIn,Conditions,Clouds,dailyrainin,SoftwareType,DateUTC
2013-06-21 00:01:00,78.8,71.1,30.11,East,90,2.0,2.0,77,0.00,,,0.01,meteohub,2013-06-21 04:01:00,
2013-06-21 00:02:00,78.8,71.1,30.11,East,90,2.0,2.0,77,0.00,,,0.01,meteohub,2013-06-21 04:02:00,
2013-06-21 00:03:00,78.8,71.1,30.12,East,90,2.0,2.0,77,0.00,,,0.01,meteohub,2013-06-21 04:03:00,
2013-06-21 00:04:00,78.8,71.1,30.12,East,90,3.0,3.0,77,0.00,,,0.01,meteohub,2013-06-21 04:04:00,
2013-06-21 00:05:00,78.8,71.1,30.11,East,90,2.0,3.0,77,0.00,,,0.00,meteohub,2013-06-21 04:05:00,
2013-06-21 00:07:00,78.6,71.2,30.12,East,90,2.0,3.0,78,0.00,,,0.00,meteohub,2013-06-21 04:07:00,
2013-06-21 00:08:00,78.6,71.2,30.12,SE,135,2.0,3.0,78,0.00,,,0.00,meteohub,2013-06-21 04:08:00,
2013-06-21 00:09:00,78.6,71.2,30.12,East,90,2.0,3.0,78,0.00,,,0.00,meteohub,2013-06-21 04:09:00,
2013-06-21 00:10:00,78.6,71.2,30.11,East,90,2.0,3.0,78,0.00,,,0.00,meteohub,2013-06-21 04:10:00,
2013-06-21 00:12:00,78.6,71.2,30.12,SE,135,2.0,3.0,78,0.00,,,0.00,meteohub,2013-06-21 04:12:00,
2013-06-21 00:14:00,78.6,71.2,30.11,SE,135,2.0,3.0,78,0.00,,,0.00,meteohub,2013-06-21 04:14:00,
2013-06-21 00:15:00,78.6,71.2,30.11,SE,135,2.0,3.0,78,0.00,,,0.00,meteohub,2013-06-21 04:15:00,
2013-06-21 00:16:00,78.6,71.2,30.11,East,90,2.0,3.0,78,0.00,,,0.00,meteohub,2013-06-21 04:16:00,
2013-06-21 00:19:00,78.6,70.9,30.11,East,90,2.0,3.0,77,0.00,,,0.00,meteohub,2013-06-21 04:19:00,
2013-06-21 00:20:00,78.6,70.9,30.12,SE,135,2.0,2.0,77,0.00,,,0.00,meteohub,2013-06-21 04:20:00,
2013-06-21 00:21:00,78.6,70.9,30.12,SE,135,2.0,2.0,77,0.00,,,0.00,meteohub,2013-06-21 04:21:00,
2013-06-21 00:22:00,78.6,70.9,30.12,North,0,1.0,2.0,77,0.00,,,0.00,meteohub,2013-06-21 04:22:00,
2013-06-21 00:25:00,78.6,70.9,30.11,SE,135,1.0,3.0,77,0.00,,,0.00,meteohub,2013-06-21 04:25:00,
2013-06-21 00:27:00,78.6,70.9,30.11,East,90,0.0,3.0,77,0.00,,,0.00,meteohub,2013-06-21 04:27:00,
2013-06-21 00:29:00,78.6,71.2,30.12,SE,135,1.0,3.0,78,0.00,,,0.00,meteohub,2013-06-21 04:29:00,
2013-06-21 00:33:00,78.6,71.2,30.12,SE,135,2.0,3.0,78,0.00,,,0.00,meteohub,2013-06-21 04:33:00,
2013-06-21 00:34:00,78.6,71.2,30.11,SE,135,2.0,3.0,78,0.00,,,0.00,meteohub,2013-06-21 04:34:00,
2013-06-21 00:35:00,78.6,71.2,30.11,NE,45,3.0,3.0,78,0.00,,,0.00,meteohub,2013-06-21 04:35:00,
2013-06-21 00:36:00,78.6,71.2,30.11,NE,45,3.0,3.0,78,0.00,,,0.00,meteohub,2013-06-21 04:36:00,
2013-06-21 00:37:00,78.6,71.2,30.11,East,90,1.0,3.0,78,0.00,,,0.00,meteohub,2013-06-21 04:37:00,
2013-06-21 00:41:00,78.6,71.6,30.11,East,90,2.0,3.0,79,0.00,,,0.00,meteohub,2013-06-21 04:41:00,
2013-06-21 00:42:00,78.6,71.6,30.11,East,90,3.0,3.0,79,0.00,,,0.00,meteohub,2013-06-21 04:42:00,
2013-06-21 00:47:00,78.4,71.8,30.11,East,90,2.0,3.0,80,0.00,,,0.00,meteohub,2013-06-21 04:47:00,
2013-06-21 00:48:00,78.4,71.8,30.11,East,90,4.0,4.0,80,0.00,,,0.00,meteohub,2013-06-21 04:48:00,
2013-06-21 00:49:00,78.4,71.8,30.11,SE,135,2.0,3.0,80,0.00,,,0.00,meteohub,2013-06-21 04:49:00,
2013-06-21 00:53:00,78.4,71.8,30.11,NE,45,3.0,4.0,80,0.00,,,0.00,meteohub,2013-06-21 04:53:00,
2013-06-21 00:54:00,78.4,71.8,30.11,NE,45,3.0,4.0,80,0.00,,,0.00,meteohub,2013-06-21 04:54:00,
2013-06-21 00:55:00,78.4,71.8,30.11,NE,45,3.0,4.0,80,0.00,,,0.00,meteohub,2013-06-21 04:55:00,
2013-06-21 00:57:00,78.4,71.8,30.11,SE,135,2.0,4.0,80,0.00,,,0.00,meteohub,2013-06-21 04:57:00,
2013-06-21 00:59:00,78.4,72.1,30.11,SE,135,3.0,4.0,81,0.00,,,0.00,meteohub,2013-06-21 04:59:00,
2013-06-21 01:00:00,78.4,72.1,30.11,SW,225,3.0,4.0,81,0.00,,,0.00,meteohub,2013-06-21 05:00:00,
2013-06-21 01:01:00,78.4,72.1,30.11,SE,135,2.0,4.0,81,0.00,,,0.00,meteohub,2013-06-21 05:01:00,
2013-06-21 01:02:00,78.4,72.1,30.11,SE,135,4.0,4.0,81,0.00,,,0.00,meteohub,2013-06-21 05:02:00,
2013-06-21 01:05:00,78.4,72.5,30.11,South,180,2.0,4.0,82,0.00,,,0.00,meteohub,2013-06-21 05:05:00,
2013-06-21 01:07:00,78.4,72.5,30.11,SE,135,2.0,4.0,82,0.00,,,0.00,meteohub,2013-06-21 05:07:00,
2013-06-21 01:10:00,78.4,72.5,30.11,East,90,4.0,4.0,82,0.00,,,0.00,meteohub,2013-06-21 05:10:00,
2013-06-21 01:11:00,78.4,72.9,30.11,SE,135,2.0,4.0,83,0.00,,,0.00,meteohub,2013-06-21 05:11:00,
2013-06-21 01:14:00,78.4,72.9,30.11,NE,45,2.0,4.0,83,0.00,,,0.00,meteohub,2013-06-21 05:14:00,
2013-06-21 01:15:00,78.3,72.7,30.11,NE,45,1.0,4.0,83,0.00,,,0.00,meteohub,2013-06-21 05:15:00,
2013-06-21 01:16:00,78.3,72.7,30.11,NE,45,2.0,4.0,83,0.00,,,0.00,meteohub,2013-06-21 05:16:00,
2013-06-21 01:17:00,78.3,72.7,30.11,SE,135,2.0,4.0,83,0.00,,,0.00,meteohub,2013-06-21 05:17:00,
2013-06-21 01:19:00,78.3,72.7,30.11,East,90,2.0,4.0,83,0.00,,,0.00,meteohub,2013-06-21 05:19:00,
2013-06-21 01:21:00,78.3,72.7,30.11,East,90,2.0,4.0,83,0.00,,,0.00,meteohub,2013-06-21 05:21:00,
2013-06-21 01:22:00,78.3,72.7,30.11,SE,135,1.0,4.0,83,0.00,,,0.00,meteohub,2013-06-21 05:22:00,
2013-06-21 01:26:00,78.1,72.5,30.11,SE,135,2.0,4.0,83,0.00,,,0.00,meteohub,2013-06-21 05:26:00,
2013-06-21 01:27:00,78.1,72.9,30.11,South,180,2.0,4.0,84,0.00,,,0.00,meteohub,2013-06-21 05:27:00,
2013-06-21 01:28:00,78.1,72.9,30.11,SE,135,2.0,4.0,84,0.00,,,0.00,meteohub,2013-06-21 05:28:00,
2013-06-21 01:29:00,78.1,72.9,30.11,SE,135,2.0,4.0,84,0.00,,,0.00,meteohub,2013-06-21 05:29:00,
2013-06-21 01:34:00,78.1,72.9,30.11,NW,315,1.0,3.0,84,0.00,,,0.00,meteohub,2013-06-21 05:34:00,
2013-06-21 01:35:00,78.1,72.9,30.10,East,90,2.0,3.0,84,0.00,,,0.00,meteohub,2013-06-21 05:35:00,
2013-06-21 01:39:00,77.9,72.7,30.11,SE,135,2.0,3.0,84,0.00,,,0.00,meteohub,2013-06-21 05:39:00,
2013-06-21 01:40:00,77.9,73.0,30.11,SE,135,1.0,3.0,85,0.00,,,0.00,meteohub,2013-06-21 05:40:00,
2013-06-21 01:41:00,77.9,73.0,30.11,East,90,2.0,3.0,85,0.00,,,0.00,meteohub,2013-06-21 05:41:00,
2013-06-21 01:42:00,77.9,73.0,30.10,East,90,2.0,3.0,85,0.00,,,0.00,meteohub,2013-06-21 05:42:00,
2013-06-21 01:44:00,77.9,73.0,30.11,SE,135,2.0,3.0,85,0.00,,,0.00,meteohub,2013-06-21 05:44:00,
2013-06-21 01:46:00,77.9,73.0,30.11,SE,135,2.0,2.0,85,0.00,,,0.00,meteohub,2013-06-21 05:46:00,
2013-06-21 01:48:00,77.9,73.0,30.10,East,90,2.0,2.0,85,0.00,,,0.00,meteohub,2013-06-21 05:48:00,
2013-06-21 01:50:00,77.7,72.9,30.10,East,90,2.0,2.0,85,0.00,,,0.00,meteohub,2013-06-21 05:50:00,
2013-06-21 01:52:00,77.7,72.9,30.11,SE,135,2.0,2.0,85,0.00,,,0.00,meteohub,2013-06-21 05:52:00,
2013-06-21 01:54:00,77.7,72.9,30.11,SE,135,1.0,2.0,85,0.00,,,0.00,meteohub,2013-06-21 05:54:00,
2013-06-21 01:57:00,77.7,73.2,30.11,SE,135,2.0,3.0,86,0.00,,,0.00,meteohub,2013-06-21 05:57:00,
2013-06-21 01:58:00,77.7,73.2,30.10,East,90,2.0,3.0,86,0.00,,,0.00,meteohub,2013-06-21 05:58:00,
2013-06-21 01:59:00,77.7,73.2,30.11,East,90,2.0,3.0,86,0.00,,,0.00,meteohub,2013-06-21 05:59:00,
2013-06-21 02:00:00,77.7,73.2,30.10,WNW,293,2.0,3.0,86,0.00,,,0.00,meteohub,2013-06-21 06:00:00,
2013-06-21 02:04:00,77.7,73.2,30.10,SE,135,2.0,3.0,86,0.00,,,0.00,meteohub,2013-06-21 06:04:00,
2013-06-21 02:05:00,77.7,73.2,30.10,East,90,4.0,4.0,86,0.00,,,0.00,meteohub,2013-06-21 06:05:00,
2013-06-21 02:06:00,77.7,73.2,30.10,South,180,3.0,4.0,86,0.00,,,0.00,meteohub,2013-06-21 06:06:00,
2013-06-21 02:09:00,77.7,73.2,30.10,East,90,4.0,4.0,86,0.00,,,0.00,meteohub,2013-06-21 06:09:00,
2013-06-21 02:10:00,77.5,73.0,30.10,East,90,2.0,6.0,86,0.00,,,0.00,meteohub,2013-06-21 06:10:00,
2013-06-21 02:11:00,77.5,73.0,30.10,SE,135,2.0,6.0,86,0.00,,,0.00,meteohub,2013-06-21 06:11:00,
2013-06-21 02:12:00,77.5,73.0,30.10,SE,135,2.0,6.0,86,0.00,,,0.00,meteohub,2013-06-21 06:12:00,
2013-06-21 02:14:00,77.5,73.0,30.10,East,90,3.0,6.0,86,0.00,,,0.00,meteohub,2013-06-21 06:14:00,
2013-06-21 02:17:00,77.5,73.0,30.10,East,90,4.0,6.0,86,0.00,,,0.00,meteohub,2013-06-21 06:17:00,
2013-06-21 02:18:00,77.5,73.0,30.10,NE,45,2.0,6.0,86,0.00,,,0.00,meteohub,2013-06-21 06:18:00,
2013-06-21 02:20:00,77.5,73.0,30.10,East,90,2.0,6.0,86,0.00,,,0.00,meteohub,2013-06-21 06:20:00,
2013-06-21 02:21:00,77.5,73.0,30.10,NE,45,4.0,6.0,86,0.00,,,0.00,meteohub,2013-06-21 06:21:00,
2013-06-21 02:23:00,77.5,73.0,30.10,East,90,2.0,6.0,86,0.00,,,0.00,meteohub,2013-06-21 06:23:00,
2013-06-21 02:24:00,77.5,73.0,30.10,SE,135,3.0,6.0,86,0.00,,,0.00,meteohub,2013-06-21 06:24:00,
2013-06-21 02:25:00,77.5,73.0,30.10,SE,135,3.0,6.0,86,0.00,,,0.00,meteohub,2013-06-21 06:25:00,
2013-06-21 02:27:00,77.5,73.4,30.10,East,90,2.0,4.0,87,0.00,,,0.00,meteohub,2013-06-21 06:27:00,
2013-06-21 02:29:00,77.4,73.2,30.10,NE,45,3.0,4.0,87,0.00,,,0.00,meteohub,2013-06-21 06:29:00,
2013-06-21 02:32:00,77.4,73.2,30.10,SW,225,5.0,5.0,87,0.00,,,0.00,meteohub,2013-06-21 06:32:00,
2013-06-21 02:34:00,77.4,73.2,30.10,SE,135,4.0,4.0,87,0.00,,,0.00,meteohub,2013-06-21 06:34:00,
2013-06-21 02:35:00,77.4,73.2,30.10,East,90,5.0,5.0,87,0.00,,,0.00,meteohub,2013-06-21 06:35:00,
2013-06-21 02:38:00,77.4,73.2,30.10,East,90,4.0,5.0,87,0.00,,,0.00,meteohub,2013-06-21 06:38:00,
2013-06-21 02:39:00,77.4,73.2,30.10,East,90,2.0,5.0,87,0.00,,,0.00,meteohub,2013-06-21 06:39:00,
2013-06-21 02:40:00,77.4,73.2,30.10,East,90,2.0,5.0,87,0.00,,,0.00,meteohub,2013-06-21 06:40:00,
2013-06-21 02:44:00,77.2,73.0,30.10,East,90,3.0,5.0,87,0.00,,,0.00,meteohub,2013-06-21 06:44:00,
2013-06-21 02:45:00,77.2,73.0,30.10,North,0,2.0,5.0,87,0.00,,,0.00,meteohub,2013-06-21 06:45:00,
2013-06-21 02:46:00,77.2,73.0,30.10,East,90,1.0,5.0,87,0.00,,,0.00,meteohub,2013-06-21 06:46:00,
2013-06-21 02:47:00,77.2,73.0,30.10,East,90,2.0,5.0,87,0.00,,,0.00,meteohub,2013-06-21 06:47:00,
2013-06-21 02:50:00,77.2,73.0,30.10,SE,135,2.0,5.0,87,0.00,,,0.00,meteohub,2013-06-21 06:50:00,
2013-06-21 02:51:00,77.2,73.0,30.10,East,90,4.0,5.0,87,0.00,,,0.00,meteohub,2013-06-21 06:51:00,
2013-06-21 02:52:00,77.2,73.0,30.10,East,90,4.0,5.0,87,0.00,,,0.00,meteohub,2013-06-21 06:52:00,
2013-06-21 02:54:00,77.0,72.9,30.10,NE,45,3.0,5.0,87,0.00,,,0.00,meteohub,2013-06-21 06:54:00,
2013-06-21 02:56:00,77.0,72.9,30.10,East,90,6.0,6.0,87,0.00,,,0.00,meteohub,2013-06-21 06:56:00,
2013-06-21 02:57:00,77.0,72.9,30.10,East,90,6.0,6.0,87,0.00,,,0.00,meteohub,2013-06-21 06:57:00,
2013-06-21 02:59:00,77.0,72.9,30.09,SE,135,2.0,5.0,87,0.00,,,0.00,meteohub,2013-06-21 06:59:00,
2013-06-21 03:02:00,77.0,72.9,30.09,NE,45,2.0,6.0,87,0.00,,,0.00,meteohub,2013-06-21 07:02:00,
2013-06-21 03:03:00,77.0,72.9,30.10,NE,45,2.0,6.0,87,0.00,,,0.00,meteohub,2013-06-21 07:03:00,
2013-06-21 03:04:00,77.0,72.9,30.09,East,90,2.0,6.0,87,0.00,,,0.00,meteohub,2013-06-21 07:04:00,
2013-06-21 03:05:00,77.0,72.9,30.10,East,90,3.0,6.0,87,0.00,,,0.00,meteohub,2013-06-21 07:05:00,
2013-06-21 03:07:00,77.0,72.9,30.09,SE,135,4.0,6.0,87,0.00,,,0.00,meteohub,2013-06-21 07:07:00,
2013-06-21 03:08:00,76.8,73.0,30.09,East,90,2.0,6.0,88,0.00,,,0.00,meteohub,2013-06-21 07:08:00,
2013-06-21 03:12:00,76.8,73.0,30.09,SE,135,2.0,6.0,88,0.00,,,0.00,meteohub,2013-06-21 07:12:00,
2013-06-21 03:13:00,76.8,73.0,30.09,East,90,1.0,6.0,88,0.00,,,0.00,meteohub,2013-06-21 07:13:00,
2013-06-21 03:14:00,76.8,73.0,30.09,NE,45,4.0,6.0,88,0.00,,,0.00,meteohub,2013-06-21 07:14:00,
2013-06-21 03:17:00,76.8,73.0,30.09,SE,135,3.0,6.0,88,0.00,,,0.00,meteohub,2013-06-21 07:17:00,
2013-06-21 03:18:00,76.8,73.0,30.09,East,90,2.0,6.0,88,0.00,,,0.00,meteohub,2013-06-21 07:18:00,
2013-06-21 03:20:00,76.8,73.0,30.09,East,90,3.0,6.0,88,0.00,,,0.00,meteohub,2013-06-21 07:20:00,
2013-06-21 03:21:00,76.8,73.0,30.09,East,90,4.0,5.0,88,0.00,,,0.00,meteohub,2013-06-21 07:21:00,
2013-06-21 03:24:00,76.8,73.0,30.08,WNW,293,2.0,5.0,88,0.00,,,0.00,meteohub,2013-06-21 07:24:00,
2013-06-21 03:26:00,76.8,73.0,30.09,East,90,2.0,5.0,88,0.00,,,0.00,meteohub,2013-06-21 07:26:00,
2013-06-21 03:27:00,76.8,73.0,30.08,East,90,1.0,5.0,88,0.00,,,0.00,meteohub,2013-06-21 07:27:00,
2013-06-21 03:31:00,76.6,72.9,30.08,SE,135,3.0,4.0,88,0.00,,,0.00,meteohub,2013-06-21 07:31:00,
2013-06-21 03:32:00,76.6,72.9,30.08,NE,45,2.0,4.0,88,0.00,,,0.00,meteohub,2013-06-21 07:32:00,
2013-06-21 03:34:00,76.6,72.9,30.08,East,90,2.0,4.0,88,0.00,,,0.00,meteohub,2013-06-21 07:34:00,
2013-06-21 03:36:00,76.6,72.9,30.08,East,90,2.0,4.0,88,0.00,,,0.00,meteohub,2013-06-21 07:36:00,
2013-06-21 03:37:00,76.6,72.9,30.08,East,90,2.0,4.0,88,0.00,,,0.00,meteohub,2013-06-21 07:37:00,
2013-06-21 03:38:00,76.6,72.9,30.08,East,90,1.0,4.0,88,0.00,,,0.00,meteohub,2013-06-21 07:38:00,
2013-06-21 03:41:00,76.6,72.9,30.08,East,90,2.0,4.0,88,0.00,,,0.00,meteohub,2013-06-21 07:41:00,
2013-06-21 03:42:00,76.6,72.9,30.08,SE,135,3.0,4.0,88,0.00,,,0.00,meteohub,2013-06-21 07:42:00,
2013-06-21 03:43:00,76.6,72.9,30.08,SE,135,2.0,4.0,88,0.00,,,0.00,meteohub,2013-06-21 07:43:00,
2013-06-21 03:44:00,76.6,72.9,30.08,SE,135,2.0,4.0,88,0.00,,,0.00,meteohub,2013-06-21 07:44:00,
2013-06-21 03:45:00,76.6,72.9,30.08,East,90,2.0,4.0,88,0.00,,,0.00,meteohub,2013-06-21 07:45:00,
2013-06-21 03:47:00,76.6,72.9,30.09,East,90,3.0,3.0,88,0.00,,,0.00,meteohub,2013-06-21 07:47:00,
2013-06-21 03:48:00,76.6,72.9,30.08,East,90,2.0,3.0,88,0.00,,,0.00,meteohub,2013-06-21 07:48:00,
2013-06-21 03:49:00,76.6,73.2,30.08,NE,45,2.0,3.0,89,0.00,,,0.00,meteohub,2013-06-21 07:49:00,
2013-06-21 03:50:00,76.6,73.2,30.08,SE,135,4.0,4.0,89,0.00,,,0.00,meteohub,2013-06-21 07:50:00,
2013-06-21 03:52:00,76.6,73.2,30.08,East,90,2.0,3.0,89,0.00,,,0.00,meteohub,2013-06-21 07:52:00,
2013-06-21 03:54:00,76.6,73.2,30.08,East,90,2.0,3.0,89,0.00,,,0.00,meteohub,2013-06-21 07:54:00,
2013-06-21 03:55:00,76.6,73.2,30.08,East,90,2.0,3.0,89,0.00,,,0.00,meteohub,2013-06-21 07:55:00,
2013-06-21 03:56:00,76.6,73.2,30.08,East,90,1.0,4.0,89,0.00,,,0.00,meteohub,2013-06-21 07:56:00,
2013-06-21 03:58:00,76.6,73.2,30.08,East,90,2.0,4.0,89,0.00,,,0.00,meteohub,2013-06-21 07:58:00,
2013-06-21 04:01:00,76.6,73.2,30.08,East,90,1.0,4.0,89,0.00,,,0.00,meteohub,2013-06-21 08:01:00,
2013-06-21 04:02:00,76.6,73.2,30.08,South,180,1.0,4.0,89,0.00,,,0.00,meteohub,2013-06-21 08:02:00,
2013-06-21 04:05:00,76.5,73.0,30.08,NE,45,2.0,4.0,89,0.00,,,0.00,meteohub,2013-06-21 08:05:00,
2013-06-21 04:06:00,76.5,73.0,30.08,SE,135,1.0,4.0,89,0.00,,,0.00,meteohub,2013-06-21 08:06:00,
2013-06-21 04:07:00,76.6,73.2,30.07,SE,135,0.0,4.0,89,0.00,,,0.00,meteohub,2013-06-21 08:07:00,
2013-06-21 04:11:00,76.5,73.0,30.08,East,90,1.0,3.0,89,0.00,,,0.00,meteohub,2013-06-21 08:11:00,
2013-06-21 04:12:00,76.5,73.0,30.08,East,90,2.0,3.0,89,0.00,,,0.00,meteohub,2013-06-21 08:12:00,
2013-06-21 04:13:00,76.5,73.0,30.08,East,90,2.0,3.0,89,0.00,,,0.00,meteohub,2013-06-21 08:13:00,
2013-06-21 04:15:00,76.5,73.0,30.08,South,180,1.0,2.0,89,0.00,,,0.00,meteohub,2013-06-21 08:15:00,
2013-06-21 04:18:00,76.5,73.0,30.08,South,180,0.0,2.0,89,0.00,,,0.00,meteohub,2013-06-21 08:18:00,
2013-06-21 04:20:00,76.5,73.0,30.08,SE,135,1.0,2.0,89,0.00,,,0.00,meteohub,2013-06-21 08:20:00,
2013-06-21 04:21:00,76.5,73.0,30.08,SE,135,1.0,2.0,89,0.00,,,0.00,meteohub,2013-06-21 08:21:00,
2013-06-21 04:22:00,76.5,73.0,30.08,NE,45,0.0,2.0,89,0.00,,,0.00,meteohub,2013-06-21 08:22:00,
2013-06-21 04:24:00,76.5,73.0,30.08,South,180,2.0,2.0,89,0.00,,,0.00,meteohub,2013-06-21 08:24:00,
2013-06-21 04:26:00,76.5,73.0,30.08,South,180,1.0,2.0,89,0.00,,,0.00,meteohub,2013-06-21 08:26:00,
2013-06-21 04:27:00,76.5,73.0,30.08,East,90,2.0,2.0,89,0.00,,,0.00,meteohub,2013-06-21 08:27:00,
2013-06-21 04:29:00,76.5,73.0,30.08,East,90,2.0,2.0,89,0.00,,,0.00,meteohub,2013-06-21 08:29:00,
2013-06-21 04:31:00,76.6,73.2,30.07,SE,135,2.0,2.0,89,0.00,,,0.00,meteohub,2013-06-21 08:31:00,
2013-06-21 04:32:00,76.6,73.2,30.07,SE,135,2.0,2.0,89,0.00,,,0.00,meteohub,2013-06-21 08:32:00,
2013-06-21 04:33:00,76.6,73.2,30.08,SE,135,2.0,2.0,89,0.00,,,0.00,meteohub,2013-06-21 08:33:00,
2013-06-21 04:35:00,76.6,73.2,30.08,SE,135,1.0,2.0,89,0.00,,,0.00,meteohub,2013-06-21 08:35:00,
2013-06-21 04:37:00,76.6,73.2,30.08,SE,135,2.0,2.0,89,0.00,,,0.00,meteohub,2013-06-21 08:37:00,
2013-06-21 04:38:00,76.6,73.2,30.08,SE,135,2.0,2.0,89,0.00,,,0.00,meteohub,2013-06-21 08:38:00,
2013-06-21 04:40:00,76.6,73.2,30.08,SE,135,2.0,2.0,89,0.00,,,0.00,meteohub,2013-06-21 08:40:00,
2013-06-21 04:41:00,76.6,73.2,30.07,NE,45,2.0,2.0,89,0.00,,,0.00,meteohub,2013-06-21 08:41:00,
2013-06-21 04:42:00,76.6,73.2,30.08,East,90,0.0,2.0,89,0.00,,,0.00,meteohub,2013-06-21 08:42:00,
2013-06-21 04:43:00,76.6,73.2,30.08,South,180,2.0,2.0,89,0.00,,,0.00,meteohub,2013-06-21 08:43:00,
2013-06-21 04:44:00,76.6,73.2,30.07,South,180,1.0,2.0,89,0.00,,,0.00,meteohub,2013-06-21 08:44:00,
2013-06-21 04:45:00,76.6,73.2,30.08,South,180,1.0,2.0,89,0.00,,,0.00,meteohub,2013-06-21 08:45:00,
2013-06-21 04:47:00,76.8,73.4,30.07,SE,135,2.0,2.0,89,0.00,,,0.00,meteohub,2013-06-21 08:47:00,
2013-06-21 04:49:00,76.6,73.2,30.08,East,90,1.0,2.0,89,0.00,,,0.00,meteohub,2013-06-21 08:49:00,
2013-06-21 04:50:00,76.6,73.2,30.08,SE,135,2.0,2.0,89,0.00,,,0.00,meteohub,2013-06-21 08:50:00,
2013-06-21 04:51:00,76.6,73.2,30.07,SE,135,2.0,2.0,89,0.00,,,0.00,meteohub,2013-06-21 08:51:00,
2013-06-21 04:54:00,76.6,73.2,30.07,East,90,1.0,2.0,89,0.00,,,0.00,meteohub,2013-06-21 08:54:00,
2013-06-21 04:55:00,76.6,73.2,30.08,SE,135,1.0,2.0,89,0.00,,,0.00,meteohub,2013-06-21 08:55:00,
2013-06-21 04:56:00,76.6,73.2,30.08,SE,135,1.0,2.0,89,0.00,,,0.00,meteohub,2013-06-21 08:56:00,
2013-06-21 04:57:00,76.6,73.2,30.08,East,90,2.0,2.0,89,0.00,,,0.00,meteohub,2013-06-21 08:57:00,
2013-06-21 05:00:00,76.6,73.2,30.07,SE,135,2.0,2.0,89,0.00,,,0.00,meteohub,2013-06-21 09:00:00,
2013-06-21 05:02:00,76.6,73.2,30.07,SE,135,3.0,3.0,89,0.00,,,0.00,meteohub,2013-06-21 09:02:00,
2013-06-21 05:03:00,76.6,73.2,30.07,East,90,1.0,2.0,89,0.00,,,0.00,meteohub,2013-06-21 09:03:00,
2013-06-21 05:05:00,76.6,73.2,30.07,East,90,2.0,2.0,89,0.00,,,0.00,meteohub,2013-06-21 09:05:00,
2013-06-21 05:06:00,76.6,73.2,30.07,NE,45,2.0,2.0,89,0.00,,,0.00,meteohub,2013-06-21 09:06:00,
2013-06-21 05:07:00,76.6,73.2,30.07,East,90,2.0,3.0,89,0.00,,,0.00,meteohub,2013-06-21 09:07:00,
2013-06-21 05:08:00,76.6,73.2,30.07,East,90,1.0,3.0,89,0.00,,,0.00,meteohub,2013-06-21 09:08:00,
2013-06-21 05:11:00,76.6,73.2,30.07,East,90,1.0,3.0,89,0.00,,,0.00,meteohub,2013-06-21 09:11:00,
2013-06-21 05:12:00,76.6,73.2,30.07,East,90,1.0,3.0,89,0.00,,,0.00,meteohub,2013-06-21 09:12:00,
2013-06-21 05:13:00,76.6,73.4,30.07,SE,135,2.0,3.0,90,0.00,,,0.00,meteohub,2013-06-21 09:13:00,
2013-06-21 05:16:00,76.6,73.4,30.07,SE,135,2.0,3.0,90,0.00,,,0.00,meteohub,2013-06-21 09:16:00,
2013-06-21 05:17:00,76.6,73.4,30.07,SE,135,2.0,3.0,90,0.00,,,0.00,meteohub,2013-06-21 09:17:00,
2013-06-21 05:19:00,76.6,73.4,30.07,East,90,2.0,3.0,90,0.00,,,0.00,meteohub,2013-06-21 09:19:00,
2013-06-21 05:22:00,76.6,73.4,30.06,NE,45,1.0,2.0,90,0.00,,,0.00,meteohub,2013-06-21 09:22:00,
2013-06-21 05:23:00,76.6,73.4,30.07,NE,45,0.0,2.0,90,0.00,,,0.00,meteohub,2013-06-21 09:23:00,
2013-06-21 05:24:00,76.6,73.4,30.07,NE,45,0.0,2.0,90,0.00,,,0.00,meteohub,2013-06-21 09:24:00,
2013-06-21 05:26:00,76.6,73.4,30.07,East,90,2.0,2.0,90,0.00,,,0.00,meteohub,2013-06-21 09:26:00,
2013-06-21 05:28:00,76.6,73.4,30.07,SE,135,1.0,2.0,90,0.00,,,0.00,meteohub,2013-06-21 09:28:00,
2013-06-21 05:29:00,76.6,73.4,30.07,SE,135,0.0,2.0,90,0.00,,,0.00,meteohub,2013-06-21 09:29:00,
2013-06-21 05:30:00,76.6,73.4,30.07,SE,135,0.0,2.0,90,0.00,,,0.00,meteohub,2013-06-21 09:30:00,
2013-06-21 05:32:00,76.6,73.4,30.07,South,180,0.0,2.0,90,0.00,,,0.00,meteohub,2013-06-21 09:32:00,
2013-06-21 05:33:00,76.6,73.4,30.07,NE,45,1.0,2.0,90,0.00,,,0.00,meteohub,2013-06-21 09:33:00,
2013-06-21 05:35:00,76.6,73.4,30.07,East,90,0.0,2.0,90,0.00,,,0.00,meteohub,2013-06-21 09:35:00,
2013-06-21 05:36:00,76.6,73.4,30.07,East,90,0.0,2.0,90,0.00,,,0.00,meteohub,2013-06-21 09:36:00,
2013-06-21 05:38:00,76.6,73.4,30.08,East,90,0.0,2.0,90,0.00,,,0.00,meteohub,2013-06-21 09:38:00,
2013-06-21 05:39:00,76.6,73.4,30.08,East,90,0.0,2.0,90,0.00,,,0.00,meteohub,2013-06-21 09:39:00,
2013-06-21 05:40:00,76.6,73.4,30.07,East,90,0.0,2.0,90,0.00,,,0.00,meteohub,2013-06-21 09:40:00,
2013-06-21 05:42:00,76.6,73.4,30.07,East,90,1.0,2.0,90,0.00,,,0.00,meteohub,2013-06-21 09:42:00,
2013-06-21 05:43:00,76.6,73.4,30.07,East,90,0.0,2.0,90,0.00,,,0.00,meteohub,2013-06-21 09:43:00,
2013-06-21 05:45:00,76.6,73.4,30.07,East,90,2.0,2.0,90,0.00,,,0.00,meteohub,2013-06-21 09:45:00,
2013-06-21 05:46:00,76.5,73.2,30.07,East,90,2.0,2.0,90,0.00,,,0.00,meteohub,2013-06-21 09:46:00,
2013-06-21 05:47:00,76.5,73.2,30.07,East,90,2.0,2.0,90,0.00,,,0.00,meteohub,2013-06-21 09:47:00,
2013-06-21 05:49:00,76.5,73.2,30.07,East,90,1.0,1.0,90,0.00,,,0.00,meteohub,2013-06-21 09:49:00,
2013-06-21 05:50:00,76.5,73.2,30.07,SE,135,2.0,2.0,90,0.00,,,0.00,meteohub,2013-06-21 09:50:00,
2013-06-21 05:51:00,76.5,73.2,30.07,SE,135,2.0,2.0,90,0.00,,,0.00,meteohub,2013-06-21 09:51:00,
2013-06-21 05:54:00,76.5,73.2,30.07,SE,135,1.0,2.0,90,0.00,,,0.00,meteohub,2013-06-21 09:54:00,
2013-06-21 05:55:00,76.5,73.2,30.08,SE,135,0.0,2.0,90,0.00,,,0.00,meteohub,2013-06-21 09:55:00,
2013-06-21 05:57:00,76.5,73.2,30.07,SE,135,0.0,2.0,90,0.00,,,0.00,meteohub,2013-06-21 09:57:00,
2013-06-21 05:58:00,76.5,73.2,30.07,SE,135,1.0,2.0,90,0.00,,,0.00,meteohub,2013-06-21 09:58:00,
2013-06-21 05:59:00,76.5,73.2,30.07,SE,135,0.0,2.0,90,0.00,,,0.00,meteohub,2013-06-21 09:59:00,
2013-06-21 06:00:00,76.5,73.2,30.07,SE,135,0.0,2.0,90,0.00,,,0.00,meteohub,2013-06-21 10:00:00,
2013-06-21 06:03:00,76.5,73.6,30.07,SE,135,1.0,2.0,91,0.00,,,0.00,meteohub,2013-06-21 10:03:00,
2013-06-21 06:04:00,76.5,73.6,30.07,SE,135,0.0,2.0,91,0.00,,,0.00,meteohub,2013-06-21 10:04:00,
2013-06-21 06:05:00,76.3,73.4,30.08,SE,135,0.0,2.0,91,0.00,,,0.00,meteohub,2013-06-21 10:05:00,
2013-06-21 06:06:00,76.5,73.6,30.07,SE,135,0.0,2.0,91,0.00,,,0.00,meteohub,2013-06-21 10:06:00,
2013-06-21 06:08:00,76.3,73.4,30.08,SE,135,0.0,2.0,91,0.00,,,0.00,meteohub,2013-06-21 10:08:00,
2013-06-21 06:10:00,76.3,73.4,30.08,SE,135,0.0,2.0,91,0.00,,,0.00,meteohub,2013-06-21 10:10:00,
2013-06-21 06:11:00,76.3,73.4,30.08,SE,135,0.0,2.0,91,0.00,,,0.00,meteohub,2013-06-21 10:11:00,
2013-06-21 06:13:00,76.3,73.4,30.08,SE,135,0.0,2.0,91,0.00,,,0.00,meteohub,2013-06-21 10:13:00,
2013-06-21 06:16:00,76.3,73.4,30.08,SE,135,0.0,1.0,91,0.00,,,0.00,meteohub,2013-06-21 10:16:00,
2013-06-21 06:17:00,76.3,73.4,30.08,SE,135,0.0,1.0,91,0.00,,,0.00,meteohub,2013-06-21 10:17:00,
2013-06-21 06:18:00,76.3,73.4,30.08,SE,135,0.0,1.0,91,0.00,,,0.00,meteohub,2013-06-21 10:18:00,
2013-06-21 06:19:00,76.1,73.2,30.09,SE,135,0.0,1.0,91,0.00,,,0.00,meteohub,2013-06-21 10:19:00,
2013-06-21 06:22:00,76.1,73.2,30.09,SE,135,0.0,0.0,91,0.00,,,0.00,meteohub,2013-06-21 10:22:00,
2013-06-21 06:25:00,76.1,73.2,30.09,SE,135,0.0,0.0,91,0.00,,,0.00,meteohub,2013-06-21 10:25:00,
2013-06-21 06:26:00,76.1,73.2,30.09,SE,135,0.0,0.0,91,0.00,,,0.00,meteohub,2013-06-21 10:26:00,
2013-06-21 06:27:00,75.9,73.0,30.09,SE,135,0.0,0.0,91,0.00,,,0.00,meteohub,2013-06-21 10:27:00,
2013-06-21 06:29:00,75.9,73.0,30.08,SE,135,0.0,0.0,91,0.00,,,0.00,meteohub,2013-06-21 10:29:00,
2013-06-21 06:30:00,75.9,73.0,30.08,SE,135,0.0,0.0,91,0.00,,,0.00,meteohub,2013-06-21 10:30:00,
2013-06-21 06:33:00,75.7,72.9,30.08,SE,135,0.0,0.0,91,0.00,,,0.00,meteohub,2013-06-21 10:33:00,
2013-06-21 06:34:00,75.7,72.9,30.09,East,90,0.0,0.0,91,0.00,,,0.00,meteohub,2013-06-21 10:34:00,
2013-06-21 06:35:00,75.7,72.9,30.09,East,90,0.0,0.0,91,0.00,,,0.00,meteohub,2013-06-21 10:35:00,
2013-06-21 06:37:00,75.7,72.9,30.08,East,90,0.0,0.0,91,0.00,,,0.00,meteohub,2013-06-21 10:37:00,
2013-06-21 06:40:00,75.7,73.2,30.09,East,90,0.0,0.0,92,0.00,,,0.00,meteohub,2013-06-21 10:40:00,
2013-06-21 06:43:00,75.7,73.2,30.08,East,90,1.0,0.0,92,0.00,,,0.00,meteohub,2013-06-21 10:43:00,
2013-06-21 06:44:00,75.7,73.2,30.08,East,90,0.0,0.0,92,0.00,,,0.00,meteohub,2013-06-21 10:44:00,
2013-06-21 06:47:00,75.7,73.2,30.09,East,90,1.0,1.0,92,0.00,,,0.00,meteohub,2013-06-21 10:47:00,
2013-06-21 06:49:00,75.7,73.2,30.08,NE,45,0.0,1.0,92,0.00,,,0.00,meteohub,2013-06-21 10:49:00,
2013-06-21 06:50:00,75.7,73.2,30.08,NE,45,0.0,1.0,92,0.00,,,0.00,meteohub,2013-06-21 10:50:00,
2013-06-21 06:52:00,75.7,73.2,30.09,East,90,0.0,1.0,92,0.00,,,0.00,meteohub,2013-06-21 10:52:00,
2013-06-21 06:53:00,75.7,73.2,30.08,East,90,0.0,1.0,92,0.00,,,0.00,meteohub,2013-06-21 10:53:00,
2013-06-21 06:54:00,75.7,73.2,30.09,North,0,1.0,1.0,92,0.00,,,0.00,meteohub,2013-06-21 10:54:00,
2013-06-21 06:55:00,75.7,73.2,30.09,NE,45,0.0,1.0,92,0.00,,,0.00,meteohub,2013-06-21 10:55:00,
2013-06-21 06:56:00,75.7,73.6,30.09,NE,45,0.0,1.0,93,0.00,,,0.00,meteohub,2013-06-21 10:56:00,
2013-06-21 06:59:00,75.9,73.8,30.09,NE,45,0.0,1.0,93,0.00,,,0.00,meteohub,2013-06-21 10:59:00,
2013-06-21 07:01:00,75.9,73.8,30.09,NE,45,0.0,1.0,93,0.00,,,0.00,meteohub,2013-06-21 11:01:00,
2013-06-21 07:02:00,75.9,73.8,30.09,NE,45,0.0,1.0,93,0.00,,,0.00,meteohub,2013-06-21 11:02:00,
2013-06-21 07:03:00,75.9,73.8,30.09,NE,45,0.0,1.0,93,0.00,,,0.00,meteohub,2013-06-21 11:03:00,
2013-06-21 07:05:00,75.9,73.8,30.09,NE,45,0.0,1.0,93,0.00,,,0.00,meteohub,2013-06-21 11:05:00,
2013-06-21 07:07:00,76.1,73.9,30.09,NE,45,0.0,1.0,93,0.00,,,0.00,meteohub,2013-06-21 11:07:00,
2013-06-21 07:09:00,76.1,73.9,30.09,NE,45,1.0,1.0,93,0.00,,,0.00,meteohub,2013-06-21 11:09:00,
2013-06-21 07:10:00,76.1,73.9,30.09,East,90,1.0,1.0,93,0.00,,,0.00,meteohub,2013-06-21 11:10:00,
2013-06-21 07:13:00,76.3,74.1,30.09,East,90,1.0,1.0,93,0.00,,,0.00,meteohub,2013-06-21 11:13:00,
2013-06-21 07:14:00,76.3,74.1,30.09,East,90,0.0,1.0,93,0.00,,,0.00,meteohub,2013-06-21 11:14:00,
2013-06-21 07:16:00,76.3,74.1,30.09,East,90,0.0,2.0,93,0.00,,,0.00,meteohub,2013-06-21 11:16:00,
2013-06-21 07:18:00,76.5,74.3,30.09,East,90,1.0,2.0,93,0.00,,,0.00,meteohub,2013-06-21 11:18:00,
2013-06-21 07:19:00,76.5,74.3,30.10,SE,135,2.0,2.0,93,0.00,,,0.00,meteohub,2013-06-21 11:19:00,
2013-06-21 07:21:00,76.6,74.8,30.09,SE,135,0.0,2.0,94,0.00,,,0.00,meteohub,2013-06-21 11:21:00,
2013-06-21 07:22:00,76.6,74.8,30.10,SE,135,0.0,2.0,94,0.00,,,0.00,meteohub,2013-06-21 11:22:00,
2013-06-21 07:24:00,76.8,75.0,30.10,SE,135,0.0,2.0,94,0.00,,,0.00,meteohub,2013-06-21 11:24:00,
2013-06-21 07:26:00,76.8,75.0,30.10,NE,45,0.0,2.0,94,0.00,,,0.00,meteohub,2013-06-21 11:26:00,
2013-06-21 07:27:00,77.0,74.8,30.10,NE,45,0.0,2.0,93,0.00,,,0.00,meteohub,2013-06-21 11:27:00,
2013-06-21 07:30:00,77.2,74.7,30.10,East,90,0.0,2.0,92,0.00,,,0.00,meteohub,2013-06-21 11:30:00,
2013-06-21 07:32:00,77.2,74.7,30.10,East,90,0.0,2.0,92,0.00,,,0.00,meteohub,2013-06-21 11:32:00,
2013-06-21 07:33:00,77.4,74.8,30.09,East,90,1.0,2.0,92,0.00,,,0.00,meteohub,2013-06-21 11:33:00,
2013-06-21 07:34:00,77.4,74.8,30.10,East,90,1.0,2.0,92,0.00,,,0.00,meteohub,2013-06-21 11:34:00,
2013-06-21 07:35:00,77.4,74.8,30.10,East,90,0.0,2.0,92,0.00,,,0.00,meteohub,2013-06-21 11:35:00,
2013-06-21 07:36:00,77.5,75.0,30.10,NE,45,0.0,1.0,92,0.00,,,0.00,meteohub,2013-06-21 11:36:00,
2013-06-21 07:37:00,77.5,75.0,30.10,SE,135,1.0,1.0,92,0.00,,,0.00,meteohub,2013-06-21 11:37:00,
2013-06-21 07:38:00,77.7,75.2,30.10,North,0,2.0,2.0,92,0.00,,,0.00,meteohub,2013-06-21 11:38:00,
2013-06-21 07:40:00,77.7,75.2,30.10,North,0,2.0,2.0,92,0.00,,,0.00,meteohub,2013-06-21 11:40:00,
2013-06-21 07:41:00,77.7,75.2,30.09,East,90,1.0,2.0,92,0.00,,,0.00,meteohub,2013-06-21 11:41:00,
2013-06-21 07:42:00,77.7,75.2,30.09,East,90,1.0,2.0,92,0.00,,,0.00,meteohub,2013-06-21 11:42:00,
2013-06-21 07:45:00,78.3,75.7,30.10,NE,45,1.0,2.0,92,0.00,,,0.00,meteohub,2013-06-21 11:45:00,
2013-06-21 07:46:00,78.3,75.7,30.10,NE,45,1.0,2.0,92,0.00,,,0.00,meteohub,2013-06-21 11:46:00,
2013-06-21 07:49:00,78.6,75.7,30.10,SE,135,2.0,2.0,91,0.00,,,0.00,meteohub,2013-06-21 11:49:00,
2013-06-21 07:50:00,78.8,75.6,30.10,SE,135,2.0,2.0,90,0.00,,,0.00,meteohub,2013-06-21 11:50:00,
2013-06-21 07:51:00,78.8,75.6,30.10,SE,135,2.0,2.0,90,0.00,,,0.00,meteohub,2013-06-21 11:51:00,
2013-06-21 07:52:00,78.8,75.6,30.10,East,90,2.0,2.0,90,0.00,,,0.00,meteohub,2013-06-21 11:52:00,
2013-06-21 07:53:00,79.0,75.4,30.10,East,90,1.0,2.0,89,0.00,,,0.00,meteohub,2013-06-21 11:53:00,
2013-06-21 07:55:00,79.3,75.7,30.10,SE,135,2.0,2.0,89,0.00,,,0.00,meteohub,2013-06-21 11:55:00,
2013-06-21 07:56:00,79.3,75.7,30.10,East,90,2.0,2.0,89,0.00,,,0.00,meteohub,2013-06-21 11:56:00,
2013-06-21 07:57:00,79.5,75.9,30.10,East,90,3.0,3.0,89,0.00,,,0.00,meteohub,2013-06-21 11:57:00,
2013-06-21 07:58:00,79.5,75.9,30.10,East,90,2.0,2.0,89,0.00,,,0.00,meteohub,2013-06-21 11:58:00,
2013-06-21 08:00:00,80.2,76.3,30.10,SE,135,3.0,3.0,88,0.00,,,0.00,meteohub,2013-06-21 12:00:00,
2013-06-21 08:01:00,80.2,76.3,30.10,SE,135,3.0,3.0,88,0.00,,,0.00,meteohub,2013-06-21 12:01:00,
2013-06-21 08:02:00,80.2,76.3,30.10,SE,135,3.0,3.0,88,0.00,,,0.00,meteohub,2013-06-21 12:02:00,
2013-06-21 08:04:00,80.6,76.1,30.10,East,90,2.0,3.0,86,0.00,,,0.00,meteohub,2013-06-21 12:04:00,
2013-06-21 08:06:00,80.8,75.9,30.10,East,90,2.0,4.0,85,0.00,,,0.00,meteohub,2013-06-21 12:06:00,
2013-06-21 08:07:00,81.0,76.1,30.10,SE,135,2.0,4.0,85,0.00,,,0.00,meteohub,2013-06-21 12:07:00,
2013-06-21 08:12:00,81.5,76.3,30.10,SE,135,2.0,4.0,84,0.00,,,0.00,meteohub,2013-06-21 12:12:00,
2013-06-21 08:13:00,81.5,76.3,30.10,NE,45,2.0,4.0,84,0.00,,,0.00,meteohub,2013-06-21 12:13:00,
2013-06-21 08:14:00,81.7,76.3,30.10,SE,135,1.0,4.0,84,0.00,,,0.00,meteohub,2013-06-21 12:14:00,
2013-06-21 08:17:00,82.0,76.6,30.10,SE,135,2.0,4.0,84,0.00,,,0.00,meteohub,2013-06-21 12:17:00,
2013-06-21 08:19:00,82.0,76.3,30.10,SE,135,2.0,4.0,83,0.00,,,0.00,meteohub,2013-06-21 12:19:00,
2013-06-21 08:20:00,82.4,76.6,30.11,East,90,3.0,3.0,83,0.00,,,0.00,meteohub,2013-06-21 12:20:00,
2013-06-21 08:21:00,82.4,76.6,30.11,East,90,3.0,3.0,83,0.00,,,0.00,meteohub,2013-06-21 12:21:00,
2013-06-21 08:24:00,82.8,76.3,30.11,East,90,2.0,2.0,81,0.00,,,0.00,meteohub,2013-06-21 12:24:00,
2013-06-21 08:25:00,82.8,76.3,30.11,SE,135,3.0,3.0,81,0.00,,,0.00,meteohub,2013-06-21 12:25:00,
2013-06-21 08:26:00,82.9,76.5,30.11,East,90,3.0,3.0,81,0.00,,,0.00,meteohub,2013-06-21 12:26:00,
2013-06-21 08:30:00,83.3,76.5,30.11,East,90,3.0,3.0,80,0.00,,,0.00,meteohub,2013-06-21 12:30:00,
2013-06-21 08:31:00,83.5,76.6,30.11,SE,135,4.0,4.0,80,0.00,,,0.00,meteohub,2013-06-21 12:31:00,
2013-06-21 08:32:00,83.5,76.6,30.11,SE,135,4.0,4.0,80,0.00,,,0.00,meteohub,2013-06-21 12:32:00,
2013-06-21 08:33:00,83.7,76.5,30.11,NE,45,2.0,3.0,79,0.00,,,0.00,meteohub,2013-06-21 12:33:00,
2013-06-21 08:36:00,83.7,76.5,30.11,East,90,2.0,4.0,79,0.00,,,0.00,meteohub,2013-06-21 12:36:00,
2013-06-21 08:37:00,83.8,76.6,30.11,NE,45,2.0,4.0,79,0.00,,,0.00,meteohub,2013-06-21 12:37:00,
2013-06-21 08:39:00,83.8,76.6,30.12,SE,135,2.0,4.0,79,0.00,,,0.00,meteohub,2013-06-21 12:39:00,
2013-06-21 08:40:00,83.8,76.3,30.12,East,90,1.0,4.0,78,0.00,,,0.00,meteohub,2013-06-21 12:40:00,
2013-06-21 08:44:00,84.0,76.5,30.11,NE,45,2.0,4.0,78,0.00,,,0.00,meteohub,2013-06-21 12:44:00,
2013-06-21 08:45:00,84.0,76.5,30.12,NE,45,2.0,4.0,78,0.00,,,0.00,meteohub,2013-06-21 12:45:00,
2013-06-21 08:46:00,84.0,76.5,30.12,SE,135,1.0,4.0,78,0.00,,,0.00,meteohub,2013-06-21 12:46:00,
2013-06-21 08:47:00,84.0,76.5,30.12,East,90,2.0,4.0,78,0.00,,,0.00,meteohub,2013-06-21 12:47:00,
2013-06-21 08:50:00,84.2,75.7,30.12,SW,225,2.0,4.0,76,0.00,,,0.00,meteohub,2013-06-21 12:50:00,
2013-06-21 08:51:00,84.0,76.1,30.12,SW,225,2.0,3.0,77,0.00,,,0.00,meteohub,2013-06-21 12:51:00,
2013-06-21 08:52:00,84.0,75.6,30.12,East,90,3.0,3.0,76,0.00,,,0.00,meteohub,2013-06-21 12:52:00,
2013-06-21 08:53:00,84.2,75.4,30.12,South,180,2.0,3.0,75,0.00,,,0.00,meteohub,2013-06-21 12:53:00,
2013-06-21 08:56:00,84.2,75.4,30.12,East,90,2.0,3.0,75,0.00,,,0.00,meteohub,2013-06-21 12:56:00,
2013-06-21 08:58:00,84.2,75.4,30.12,East,90,2.0,3.0,75,0.00,,,0.00,meteohub,2013-06-21 12:58:00,
2013-06-21 08:59:00,84.2,75.4,30.12,East,90,2.0,3.0,75,0.00,,,0.00,meteohub,2013-06-21 12:59:00,
2013-06-21 09:00:00,84.2,75.4,30.12,SE,135,2.0,3.0,75,0.00,,,0.00,meteohub,2013-06-21 13:00:00,
2013-06-21 09:02:00,84.6,75.7,30.11,West,270,2.0,3.0,75,0.00,,,0.00,meteohub,2013-06-21 13:02:00,
2013-06-21 09:03:00,84.6,75.4,30.11,East,90,4.0,4.0,74,0.00,,,0.00,meteohub,2013-06-21 13:03:00,
2013-06-21 09:04:00,84.7,75.9,30.12,East,90,4.0,4.0,75,0.00,,,0.00,meteohub,2013-06-21 13:04:00,
2013-06-21 09:05:00,84.7,75.9,30.12,NE,45,1.0,3.0,75,0.00,,,0.00,meteohub,2013-06-21 13:05:00,
2013-06-21 09:07:00,84.9,76.1,30.11,SW,225,3.0,4.0,75,0.00,,,0.00,meteohub,2013-06-21 13:07:00,
2013-06-21 09:08:00,85.1,76.3,30.11,SE,135,2.0,4.0,75,0.00,,,0.00,meteohub,2013-06-21 13:08:00,
2013-06-21 09:09:00,85.3,76.1,30.11,SE,135,3.0,4.0,74,0.00,,,0.00,meteohub,2013-06-21 13:09:00,
2013-06-21 09:10:00,85.5,76.3,30.11,SW,225,3.0,4.0,74,0.00,,,0.00,meteohub,2013-06-21 13:10:00,
2013-06-21 09:11:00,85.6,75.2,30.11,SW,225,4.0,4.0,71,0.00,,,0.00,meteohub,2013-06-21 13:11:00,
2013-06-21 09:13:00,85.6,74.3,30.12,SW,225,4.0,4.0,69,0.00,,,0.00,meteohub,2013-06-21 13:13:00,
2013-06-21 09:14:00,85.8,74.5,30.12,SW,225,2.0,4.0,69,0.00,,,0.00,meteohub,2013-06-21 13:14:00,
2013-06-21 09:15:00,85.8,74.5,30.12,SW,225,2.0,4.0,69,0.00,,,0.00,meteohub,2013-06-21 13:15:00,
2013-06-21 09:17:00,86.0,74.7,30.12,NE,45,3.0,4.0,69,0.00,,,0.00,meteohub,2013-06-21 13:17:00,
2013-06-21 09:19:00,86.2,75.7,30.12,East,90,4.0,4.0,71,0.00,,,0.00,meteohub,2013-06-21 13:19:00,
2013-06-21 09:21:00,86.5,75.2,30.11,SW,225,4.0,4.0,69,0.00,,,0.00,meteohub,2013-06-21 13:21:00,
2013-06-21 09:22:00,86.4,74.5,30.12,SW,225,4.0,4.0,68,0.00,,,0.00,meteohub,2013-06-21 13:22:00,
2013-06-21 09:24:00,86.4,74.5,30.12,North,0,2.0,4.0,68,0.00,,,0.00,meteohub,2013-06-21 13:24:00,
2013-06-21 09:26:00,86.4,73.6,30.12,SW,225,3.0,4.0,66,0.00,,,0.00,meteohub,2013-06-21 13:26:00,
2013-06-21 09:27:00,86.4,73.6,30.12,SW,225,2.0,4.0,66,0.00,,,0.00,meteohub,2013-06-21 13:27:00,
2013-06-21 09:29:00,86.4,74.5,30.12,South,180,3.0,4.0,68,0.00,,,0.00,meteohub,2013-06-21 13:29:00,
2013-06-21 09:31:00,86.5,74.3,30.12,SW,225,4.0,4.0,67,0.00,,,0.00,meteohub,2013-06-21 13:31:00,
2013-06-21 09:32:00,86.5,74.3,30.12,SW,225,4.0,4.0,67,0.00,,,0.00,meteohub,2013-06-21 13:32:00,
2013-06-21 09:34:00,86.4,73.6,30.12,West,270,2.0,4.0,66,0.00,,,0.00,meteohub,2013-06-21 13:34:00,
2013-06-21 09:35:00,86.4,74.1,30.12,SW,225,2.0,4.0,67,0.00,,,0.00,meteohub,2013-06-21 13:35:00,
2013-06-21 09:37:00,86.4,73.6,30.12,SW,225,4.0,4.0,66,0.00,,,0.00,meteohub,2013-06-21 13:37:00,
2013-06-21 09:39:00,86.4,73.6,30.13,North,0,2.0,4.0,66,0.00,,,0.00,meteohub,2013-06-21 13:39:00,
2013-06-21 09:40:00,86.4,73.6,30.12,South,180,3.0,4.0,66,0.00,,,0.00,meteohub,2013-06-21 13:40:00,
2013-06-21 09:43:00,86.7,74.8,30.12,South,180,1.0,4.0,68,0.00,,,0.00,meteohub,2013-06-21 13:43:00,
2013-06-21 09:45:00,86.9,74.7,30.13,SE,135,2.0,4.0,67,0.00,,,0.00,meteohub,2013-06-21 13:45:00,
2013-06-21 09:46:00,86.7,74.5,30.12,West,270,3.0,4.0,67,0.00,,,0.00,meteohub,2013-06-21 13:46:00,
2013-06-21 09:48:00,86.9,75.0,30.13,NW,315,2.0,4.0,68,0.00,,,0.00,meteohub,2013-06-21 13:48:00,
2013-06-21 09:49:00,87.1,75.7,30.12,NW,315,2.0,4.0,69,0.00,,,0.00,meteohub,2013-06-21 13:49:00,
2013-06-21 09:53:00,87.3,75.4,30.12,SW,225,2.0,4.0,68,0.00,,,0.00,meteohub,2013-06-21 13:53:00,
2013-06-21 09:55:00,87.4,75.9,30.13,SE,135,2.0,4.0,69,0.00,,,0.00,meteohub,2013-06-21 13:55:00,
2013-06-21 09:56:00,87.6,75.7,30.12,South,180,6.0,6.0,68,0.00,,,0.00,meteohub,2013-06-21 13:56:00,
2013-06-21 09:57:00,87.6,75.7,30.12,South,180,6.0,6.0,68,0.00,,,0.00,meteohub,2013-06-21 13:57:00,
2013-06-21 10:01:00,87.3,75.4,30.13,West,270,2.0,6.0,68,0.00,,,0.00,meteohub,2013-06-21 14:01:00,
2013-06-21 10:02:00,87.3,75.4,30.12,SW,225,6.0,6.0,68,0.00,,,0.00,meteohub,2013-06-21 14:02:00,
2013-06-21 10:05:00,87.4,75.9,30.12,East,90,3.0,6.0,69,0.00,,,0.00,meteohub,2013-06-21 14:05:00,
2013-06-21 10:07:00,87.4,75.9,30.13,SE,135,4.0,6.0,69,0.00,,,0.00,meteohub,2013-06-21 14:07:00,
2013-06-21 10:10:00,87.8,75.4,30.12,SW,225,7.0,7.0,67,0.00,,,0.00,meteohub,2013-06-21 14:10:00,
2013-06-21 10:11:00,87.6,75.4,30.12,WNW,293,7.0,7.0,67,0.00,,,0.00,meteohub,2013-06-21 14:11:00,
2013-06-21 10:12:00,87.6,74.8,30.12,West,270,4.0,6.0,66,0.00,,,0.00,meteohub,2013-06-21 14:12:00,
2013-06-21 10:13:00,87.4,75.2,30.12,South,180,4.0,6.0,67,0.00,,,0.00,meteohub,2013-06-21 14:13:00,
2013-06-21 10:15:00,87.3,75.4,30.12,SW,225,4.0,6.0,68,0.00,,,0.00,meteohub,2013-06-21 14:15:00,
2013-06-21 10:16:00,87.1,75.2,30.12,SW,225,4.0,7.0,68,0.00,,,0.00,meteohub,2013-06-21 14:16:00,
2013-06-21 10:17:00,86.7,74.8,30.12,SW,225,4.0,7.0,68,0.00,,,0.00,meteohub,2013-06-21 14:17:00,
2013-06-21 10:18:00,86.7,75.4,30.12,SW,225,5.0,7.0,69,0.00,,,0.00,meteohub,2013-06-21 14:18:00,
2013-06-21 10:20:00,86.7,75.7,30.12,SE,135,3.0,7.0,70,0.00,,,0.00,meteohub,2013-06-21 14:20:00,
2013-06-21 10:21:00,86.7,75.7,30.12,SE,135,2.0,7.0,70,0.00,,,0.00,meteohub,2013-06-21 14:21:00,
2013-06-21 10:22:00,86.9,75.9,30.12,SW,225,4.0,7.0,70,0.00,,,0.00,meteohub,2013-06-21 14:22:00,
2013-06-21 10:23:00,87.1,76.5,30.12,SW,225,8.0,8.0,71,0.00,,,0.00,meteohub,2013-06-21 14:23:00,
2013-06-21 10:25:00,87.1,75.7,30.12,WSW,248,7.0,8.0,69,0.00,,,0.00,meteohub,2013-06-21 14:25:00,
2013-06-21 10:26:00,86.9,75.6,30.12,SW,225,4.0,8.0,69,0.00,,,0.00,meteohub,2013-06-21 14:26:00,
2013-06-21 10:28:00,86.7,75.7,30.12,East,90,3.0,8.0,70,0.00,,,0.00,meteohub,2013-06-21 14:28:00,
2013-06-21 10:29:00,86.7,75.7,30.12,East,90,3.0,8.0,70,0.00,,,0.00,meteohub,2013-06-21 14:29:00,
2013-06-21 10:34:00,86.7,75.7,30.12,North,0,2.0,8.0,70,0.00,,,0.00,meteohub,2013-06-21 14:34:00,
2013-06-21 10:35:00,86.9,75.9,30.12,West,270,4.0,8.0,70,0.00,,,0.00,meteohub,2013-06-21 14:35:00,
2013-06-21 10:37:00,86.9,75.9,30.12,SE,135,5.0,8.0,70,0.00,,,0.00,meteohub,2013-06-21 14:37:00,
2013-06-21 10:40:00,86.9,75.9,30.12,SW,225,5.0,8.0,70,0.00,,,0.00,meteohub,2013-06-21 14:40:00,
2013-06-21 10:41:00,86.9,75.9,30.12,SW,225,5.0,7.0,70,0.00,,,0.00,meteohub,2013-06-21 14:41:00,
2013-06-21 10:44:00,86.7,75.4,30.12,SW,225,4.0,7.0,69,0.00,,,0.00,meteohub,2013-06-21 14:44:00,
2013-06-21 10:45:00,86.9,75.9,30.12,NW,315,3.0,8.0,70,0.00,,,0.00,meteohub,2013-06-21 14:45:00,
2013-06-21 10:46:00,86.9,75.9,30.12,NW,315,3.0,8.0,70,0.00,,,0.00,meteohub,2013-06-21 14:46:00,
2013-06-21 10:47:00,87.1,76.1,30.12,SW,225,2.0,8.0,70,0.00,,,0.00,meteohub,2013-06-21 14:47:00,
2013-06-21 10:50:00,87.8,75.9,30.12,SW,225,4.0,8.0,68,0.00,,,0.00,meteohub,2013-06-21 14:50:00,
2013-06-21 10:51:00,87.8,75.4,30.12,SW,225,3.0,8.0,67,0.00,,,0.00,meteohub,2013-06-21 14:51:00,
2013-06-21 10:52:00,88.0,75.2,30.12,SW,225,2.0,8.0,66,0.00,,,0.00,meteohub,2013-06-21 14:52:00,
2013-06-21 10:54:00,88.3,75.9,30.12,South,180,4.0,8.0,67,0.00,,,0.00,meteohub,2013-06-21 14:54:00,
2013-06-21 10:56:00,88.5,76.1,30.12,NE,45,2.0,6.0,67,0.00,,,0.00,meteohub,2013-06-21 14:56:00,
2013-06-21 10:57:00,88.5,76.1,30.12,NE,45,2.0,6.0,67,0.00,,,0.00,meteohub,2013-06-21 14:57:00,
2013-06-21 10:58:00,88.7,75.9,30.12,SW,225,7.0,7.0,66,0.00,,,0.00,meteohub,2013-06-21 14:58:00,
2013-06-21 11:01:00,88.2,74.8,30.12,NW,315,4.0,6.0,65,0.00,,,0.00,meteohub,2013-06-21 15:01:00,
2013-06-21 11:02:00,88.2,74.8,30.12,NW,315,4.0,6.0,65,0.00,,,0.00,meteohub,2013-06-21 15:02:00,
2013-06-21 11:04:00,88.2,74.5,30.12,South,180,3.0,6.0,64,0.00,,,0.00,meteohub,2013-06-21 15:04:00,
2013-06-21 11:07:00,88.2,74.5,30.12,South,180,2.0,7.0,64,0.00,,,0.00,meteohub,2013-06-21 15:07:00,
2013-06-21 11:09:00,88.3,75.0,30.12,West,270,5.0,7.0,65,0.00,,,0.00,meteohub,2013-06-21 15:09:00,
2013-06-21 11:10:00,88.3,75.0,30.12,South,180,4.0,7.0,65,0.00,,,0.00,meteohub,2013-06-21 15:10:00,
2013-06-21 11:12:00,88.3,75.0,30.12,SW,225,6.0,7.0,65,0.00,,,0.00,meteohub,2013-06-21 15:12:00,
2013-06-21 11:14:00,88.3,74.7,30.12,West,270,4.0,7.0,64,0.00,,,0.00,meteohub,2013-06-21 15:14:00,
2013-06-21 11:15:00,88.5,74.3,30.12,NW,315,4.0,7.0,63,0.00,,,0.00,meteohub,2013-06-21 15:15:00,
2013-06-21 11:16:00,88.5,74.8,30.12,NE,45,3.0,6.0,64,0.00,,,0.00,meteohub,2013-06-21 15:16:00,
2013-06-21 11:20:00,88.9,74.7,30.12,South,180,3.0,6.0,63,0.00,,,0.00,meteohub,2013-06-21 15:20:00,
2013-06-21 11:21:00,89.1,74.8,30.12,West,270,3.0,6.0,63,0.00,,,0.00,meteohub,2013-06-21 15:21:00,
2013-06-21 11:22:00,89.2,75.0,30.13,SE,135,2.0,6.0,63,0.00,,,0.00,meteohub,2013-06-21 15:22:00,
2013-06-21 11:25:00,89.6,75.4,30.12,South,180,3.0,6.0,63,0.00,,,0.00,meteohub,2013-06-21 15:25:00,
2013-06-21 11:27:00,89.6,74.8,30.13,SW,225,7.0,7.0,62,0.00,,,0.00,meteohub,2013-06-21 15:27:00,
2013-06-21 11:28:00,89.6,74.8,30.13,SE,135,2.0,6.0,62,0.00,,,0.00,meteohub,2013-06-21 15:28:00,
2013-06-21 11:30:00,89.4,75.2,30.13,WNW,293,6.0,6.0,63,0.00,,,0.00,meteohub,2013-06-21 15:30:00,
2013-06-21 11:31:00,89.4,75.2,30.13,NW,315,6.0,8.0,63,0.00,,,0.00,meteohub,2013-06-21 15:31:00,
2013-06-21 11:32:00,88.9,74.7,30.13,South,180,6.0,8.0,63,0.00,,,0.00,meteohub,2013-06-21 15:32:00,
2013-06-21 11:33:00,88.7,75.0,30.13,WSW,248,5.0,8.0,64,0.00,,,0.00,meteohub,2013-06-21 15:33:00,
2013-06-21 11:37:00,88.2,75.4,30.13,SW,225,7.0,8.0,66,0.00,,,0.00,meteohub,2013-06-21 15:37:00,
2013-06-21 11:38:00,88.0,75.6,30.13,WSW,248,7.0,8.0,67,0.00,,,0.00,meteohub,2013-06-21 15:38:00,
2013-06-21 11:39:00,87.8,75.4,30.13,NW,315,4.0,8.0,67,0.00,,,0.00,meteohub,2013-06-21 15:39:00,
2013-06-21 11:42:00,87.8,75.4,30.13,SW,225,5.0,8.0,67,0.00,,,0.00,meteohub,2013-06-21 15:42:00,
2013-06-21 11:43:00,87.8,75.0,30.12,SW,225,8.0,8.0,66,0.00,,,0.00,meteohub,2013-06-21 15:43:00,
2013-06-21 11:44:00,87.6,74.8,30.12,SW,225,6.0,8.0,66,0.00,,,0.00,meteohub,2013-06-21 15:44:00,
2013-06-21 11:45:00,87.6,74.8,30.12,SW,225,6.0,8.0,66,0.00,,,0.00,meteohub,2013-06-21 15:45:00,
2013-06-21 11:47:00,87.4,75.2,30.13,South,180,5.0,8.0,67,0.00,,,0.00,meteohub,2013-06-21 15:47:00,
2013-06-21 11:49:00,87.4,74.7,30.12,WNW,293,4.0,8.0,66,0.00,,,0.00,meteohub,2013-06-21 15:49:00,
2013-06-21 11:50:00,87.6,75.4,30.12,SW,225,4.0,8.0,67,0.00,,,0.00,meteohub,2013-06-21 15:50:00,
2013-06-21 11:52:00,87.6,75.4,30.12,East,90,2.0,8.0,67,0.00,,,0.00,meteohub,2013-06-21 15:52:00,
2013-06-21 11:54:00,87.6,75.4,30.13,South,180,3.0,8.0,67,0.00,,,0.00,meteohub,2013-06-21 15:54:00,
2013-06-21 11:55:00,87.8,75.0,30.12,South,180,5.0,8.0,66,0.00,,,0.00,meteohub,2013-06-21 15:55:00,
2013-06-21 11:57:00,87.8,74.5,30.12,SW,225,4.0,8.0,65,0.00,,,0.00,meteohub,2013-06-21 15:57:00,
2013-06-21 12:00:00,88.0,75.2,30.12,SW,225,4.0,8.0,66,0.00,,,0.00,meteohub,2013-06-21 16:00:00,
2013-06-21 12:01:00,88.2,75.7,30.12,West,270,6.0,6.0,67,0.00,,,0.00,meteohub,2013-06-21 16:01:00,
2013-06-21 12:02:00,88.2,75.7,30.12,West,270,6.0,6.0,67,0.00,,,0.00,meteohub,2013-06-21 16:02:00,
2013-06-21 12:04:00,88.3,75.9,30.12,SW,225,5.0,5.0,67,0.00,,,0.00,meteohub,2013-06-21 16:04:00,
2013-06-21 12:07:00,88.5,75.7,30.12,SW,225,4.0,7.0,66,0.00,,,0.00,meteohub,2013-06-21 16:07:00,
2013-06-21 12:09:00,88.5,75.7,30.12,SE,135,4.0,7.0,66,0.00,,,0.00,meteohub,2013-06-21 16:09:00,
2013-06-21 12:11:00,88.7,75.4,30.12,SW,225,6.0,7.0,65,0.00,,,0.00,meteohub,2013-06-21 16:11:00,
2013-06-21 12:13:00,88.5,75.2,30.12,South,180,6.0,7.0,65,0.00,,,0.00,meteohub,2013-06-21 16:13:00,
2013-06-21 12:14:00,88.3,75.0,30.12,SW,225,5.0,7.0,65,0.00,,,0.00,meteohub,2013-06-21 16:14:00,
2013-06-21 12:16:00,88.3,75.0,30.12,SW,225,5.0,8.0,65,0.00,,,0.00,meteohub,2013-06-21 16:16:00,
2013-06-21 12:18:00,88.3,74.7,30.12,SE,135,4.0,8.0,64,0.00,,,0.00,meteohub,2013-06-21 16:18:00,
2013-06-21 12:20:00,88.5,75.2,30.12,West,270,4.0,8.0,65,0.00,,,0.00,meteohub,2013-06-21 16:20:00,
2013-06-21 12:21:00,88.7,75.4,30.12,SE,135,4.0,8.0,65,0.00,,,0.00,meteohub,2013-06-21 16:21:00,
2013-06-21 12:22:00,88.7,75.4,30.12,SE,135,4.0,8.0,65,0.00,,,0.00,meteohub,2013-06-21 16:22:00,
2013-06-21 12:23:00,88.7,74.5,30.12,SW,225,5.0,8.0,63,0.00,,,0.00,meteohub,2013-06-21 16:23:00,
2013-06-21 12:26:00,88.3,74.1,30.12,West,270,2.0,8.0,63,0.00,,,0.00,meteohub,2013-06-21 16:26:00,
2013-06-21 12:27:00,88.3,74.1,30.12,West,270,2.0,8.0,63,0.00,,,0.00,meteohub,2013-06-21 16:27:00,
2013-06-21 12:29:00,88.2,74.5,30.13,SE,135,2.0,8.0,64,0.00,,,0.00,meteohub,2013-06-21 16:29:00,
2013-06-21 12:31:00,87.8,73.2,30.13,SW,225,2.0,5.0,62,0.00,,,0.00,meteohub,2013-06-21 16:31:00,
2013-06-21 12:32:00,87.8,73.6,30.13,South,180,4.0,5.0,63,0.00,,,0.00,meteohub,2013-06-21 16:32:00,
2013-06-21 12:34:00,87.4,74.7,30.13,SE,135,1.0,5.0,66,0.00,,,0.00,meteohub,2013-06-21 16:34:00,
2013-06-21 12:37:00,87.1,74.8,30.13,NE,45,2.0,5.0,67,0.00,,,0.00,meteohub,2013-06-21 16:37:00,
2013-06-21 12:39:00,86.5,73.8,30.14,North,0,2.0,5.0,66,0.00,,,0.00,meteohub,2013-06-21 16:39:00,
2013-06-21 12:40:00,86.5,73.4,30.13,East,90,2.0,5.0,65,0.00,,,0.00,meteohub,2013-06-21 16:40:00,
2013-06-21 12:42:00,86.0,72.9,30.13,East,90,4.0,4.0,65,0.00,,,0.00,meteohub,2013-06-21 16:42:00,
2013-06-21 12:44:00,85.5,72.9,30.14,East,90,2.0,4.0,66,0.00,,,0.00,meteohub,2013-06-21 16:44:00,
2013-06-21 12:47:00,84.7,72.5,30.13,North,0,2.0,4.0,67,0.00,,,0.00,meteohub,2013-06-21 16:47:00,
2013-06-21 12:48:00,84.7,72.5,30.13,North,0,2.0,4.0,67,0.00,,,0.00,meteohub,2013-06-21 16:48:00,
2013-06-21 12:49:00,84.4,72.1,30.13,NW,315,2.0,4.0,67,0.00,,,0.00,meteohub,2013-06-21 16:49:00,
2013-06-21 12:52:00,84.0,72.3,30.13,NW,315,2.0,4.0,68,0.00,,,0.00,meteohub,2013-06-21 16:52:00,
2013-06-21 12:54:00,83.8,72.1,30.13,NE,45,2.0,4.0,68,0.00,,,0.00,meteohub,2013-06-21 16:54:00,
2013-06-21 12:55:00,83.7,72.0,30.13,East,90,3.0,4.0,68,0.00,,,0.00,meteohub,2013-06-21 16:55:00,
2013-06-21 12:56:00,83.7,72.0,30.13,East,90,3.0,4.0,68,0.00,,,0.00,meteohub,2013-06-21 16:56:00,
2013-06-21 12:57:00,83.5,71.8,30.13,NE,45,3.0,4.0,68,0.00,,,0.00,meteohub,2013-06-21 16:57:00,
2013-06-21 12:58:00,83.3,71.2,30.13,North,0,2.0,4.0,67,0.00,,,0.00,meteohub,2013-06-21 16:58:00,
2013-06-21 13:01:00,83.1,71.1,30.14,NE,45,0.0,4.0,67,0.00,,,0.00,meteohub,2013-06-21 17:01:00,
2013-06-21 13:02:00,83.1,71.1,30.14,NE,45,0.0,4.0,67,0.00,,,0.00,meteohub,2013-06-21 17:02:00,
2013-06-21 13:03:00,82.9,70.9,30.14,NE,45,0.0,4.0,67,0.00,,,0.00,meteohub,2013-06-21 17:03:00,
2013-06-21 13:04:00,82.9,71.2,30.14,NE,45,0.0,4.0,68,0.00,,,0.00,meteohub,2013-06-21 17:04:00,
2013-06-21 13:05:00,82.9,71.2,30.14,NE,45,1.0,4.0,68,0.00,,,0.00,meteohub,2013-06-21 17:05:00,
2013-06-21 13:11:00,83.1,71.4,30.13,North,0,2.0,3.0,68,0.00,,,0.00,meteohub,2013-06-21 17:11:00,
2013-06-21 13:12:00,83.1,71.4,30.13,North,0,2.0,3.0,68,0.00,,,0.00,meteohub,2013-06-21 17:12:00,
2013-06-21 13:15:00,83.1,71.4,30.13,NE,45,1.0,3.0,68,0.00,,,0.00,meteohub,2013-06-21 17:15:00,
2013-06-21 13:17:00,82.9,71.2,30.13,North,0,2.0,2.0,68,0.00,,,0.00,meteohub,2013-06-21 17:17:00,
2013-06-21 13:18:00,82.9,71.2,30.13,North,0,2.0,2.0,68,0.00,,,0.00,meteohub,2013-06-21 17:18:00,
2013-06-21 13:19:00,82.9,70.9,30.13,North,0,1.0,2.0,67,0.00,,,0.00,meteohub,2013-06-21 17:19:00,
2013-06-21 13:22:00,82.9,70.9,30.13,NE,45,1.0,2.0,67,0.00,,,0.00,meteohub,2013-06-21 17:22:00,
2013-06-21 13:23:00,82.9,70.9,30.13,North,0,2.0,2.0,67,0.00,,,0.00,meteohub,2013-06-21 17:23:00,
2013-06-21 13:28:00,83.1,71.1,30.13,NE,45,2.0,2.0,67,0.00,,,0.00,meteohub,2013-06-21 17:28:00,
2013-06-21 13:29:00,83.1,71.4,30.13,North,0,2.0,2.0,68,0.00,,,0.00,meteohub,2013-06-21 17:29:00,
2013-06-21 13:30:00,83.1,72.0,30.13,NE,45,2.0,2.0,69,0.00,,,0.00,meteohub,2013-06-21 17:30:00,
2013-06-21 13:32:00,83.1,72.0,30.13,North,0,1.0,3.0,69,0.00,,,0.00,meteohub,2013-06-21 17:32:00,
2013-06-21 13:33:00,83.1,72.0,30.13,NE,45,2.0,3.0,69,0.00,,,0.00,meteohub,2013-06-21 17:33:00,
2013-06-21 13:36:00,83.1,72.0,30.13,North,0,2.0,3.0,69,0.00,,,0.00,meteohub,2013-06-21 17:36:00,
2013-06-21 13:37:00,83.1,72.0,30.13,North,0,2.0,3.0,69,0.00,,,0.00,meteohub,2013-06-21 17:37:00,
2013-06-21 13:38:00,83.1,72.0,30.13,North,0,1.0,3.0,69,0.00,,,0.00,meteohub,2013-06-21 17:38:00,
2013-06-21 13:40:00,83.3,72.1,30.13,NE,45,1.0,3.0,69,0.00,,,0.00,meteohub,2013-06-21 17:40:00,
2013-06-21 13:42:00,83.3,72.1,30.13,North,0,1.0,3.0,69,0.00,,,0.00,meteohub,2013-06-21 17:42:00,
2013-06-21 13:44:00,83.3,72.1,30.13,NE,45,2.0,3.0,69,0.00,,,0.00,meteohub,2013-06-21 17:44:00,
2013-06-21 13:46:00,83.5,72.3,30.13,East,90,1.0,2.0,69,0.00,,,0.00,meteohub,2013-06-21 17:46:00,
2013-06-21 13:47:00,83.5,72.3,30.13,NE,45,2.0,2.0,69,0.00,,,0.00,meteohub,2013-06-21 17:47:00,
2013-06-21 13:48:00,83.5,72.3,30.12,NE,45,2.0,2.0,69,0.00,,,0.00,meteohub,2013-06-21 17:48:00,
2013-06-21 13:50:00,83.5,72.3,30.12,East,90,1.0,2.0,69,0.00,,,0.00,meteohub,2013-06-21 17:50:00,
2013-06-21 13:52:00,83.5,72.3,30.13,North,0,2.0,2.0,69,0.00,,,0.00,meteohub,2013-06-21 17:52:00,
2013-06-21 13:53:00,83.5,72.3,30.13,North,0,1.0,2.0,69,0.00,,,0.00,meteohub,2013-06-21 17:53:00,
2013-06-21 13:55:00,83.7,72.3,30.13,NW,315,2.0,2.0,69,0.00,,,0.00,meteohub,2013-06-21 17:55:00,
2013-06-21 13:57:00,83.8,72.5,30.13,North,0,1.0,2.0,69,0.00,,,0.00,meteohub,2013-06-21 17:57:00,
2013-06-21 13:59:00,83.8,72.1,30.12,NE,45,0.0,2.0,68,0.00,,,0.00,meteohub,2013-06-21 17:59:00,
2013-06-21 14:02:00,84.2,72.0,30.13,SE,135,2.0,2.0,67,0.00,,,0.00,meteohub,2013-06-21 18:02:00,
2013-06-21 14:03:00,84.4,72.1,30.13,NE,45,2.0,2.0,67,0.00,,,0.00,meteohub,2013-06-21 18:03:00,
2013-06-21 14:05:00,84.4,72.1,30.12,North,0,2.0,2.0,67,0.00,,,0.00,meteohub,2013-06-21 18:05:00,
2013-06-21 14:07:00,84.7,72.5,30.12,North,0,2.0,2.0,67,0.00,,,0.00,meteohub,2013-06-21 18:07:00,
2013-06-21 14:08:00,84.7,72.1,30.12,North,0,1.0,2.0,66,0.00,,,0.00,meteohub,2013-06-21 18:08:00,
2013-06-21 14:11:00,84.7,72.1,30.12,NW,315,1.0,2.0,66,0.00,,,0.00,meteohub,2013-06-21 18:11:00,
2013-06-21 14:13:00,84.7,72.1,30.12,NW,315,1.0,2.0,66,0.00,,,0.00,meteohub,2013-06-21 18:13:00,
2013-06-21 14:18:00,85.1,72.5,30.12,NW,315,1.0,2.0,66,0.00,,,0.00,meteohub,2013-06-21 18:18:00,
2013-06-21 14:19:00,85.3,73.0,30.12,NE,45,2.0,2.0,67,0.00,,,0.00,meteohub,2013-06-21 18:19:00,
2013-06-21 14:20:00,85.3,73.0,30.12,East,90,2.0,2.0,67,0.00,,,0.00,meteohub,2013-06-21 18:20:00,
2013-06-21 14:21:00,85.3,73.0,30.12,East,90,1.0,2.0,67,0.00,,,0.00,meteohub,2013-06-21 18:21:00,
2013-06-21 14:23:00,85.5,73.2,30.11,NE,45,2.0,2.0,67,0.00,,,0.00,meteohub,2013-06-21 18:23:00,
2013-06-21 14:24:00,85.5,73.2,30.11,NE,45,2.0,2.0,67,0.00,,,0.00,meteohub,2013-06-21 18:24:00,
2013-06-21 14:26:00,85.5,73.2,30.12,West,270,2.0,2.0,67,0.00,,,0.00,meteohub,2013-06-21 18:26:00,
2013-06-21 14:28:00,85.8,73.6,30.11,West,270,4.0,4.0,67,0.00,,,0.00,meteohub,2013-06-21 18:28:00,
2013-06-21 14:29:00,86.0,73.2,30.11,West,270,2.0,2.0,66,0.00,,,0.00,meteohub,2013-06-21 18:29:00,
2013-06-21 14:30:00,86.0,73.2,30.11,NW,315,2.0,2.0,66,0.00,,,0.00,meteohub,2013-06-21 18:30:00,
2013-06-21 14:32:00,86.2,73.9,30.11,West,270,3.0,4.0,67,0.00,,,0.00,meteohub,2013-06-21 18:32:00,
2013-06-21 14:33:00,86.2,73.9,30.11,SW,225,2.0,4.0,67,0.00,,,0.00,meteohub,2013-06-21 18:33:00,
2013-06-21 14:34:00,86.4,73.6,30.11,SW,225,2.0,4.0,66,0.00,,,0.00,meteohub,2013-06-21 18:34:00,
2013-06-21 14:36:00,86.4,73.6,30.11,SW,225,3.0,4.0,66,0.00,,,0.00,meteohub,2013-06-21 18:36:00,
2013-06-21 14:37:00,86.4,73.6,30.11,SW,225,2.0,4.0,66,0.00,,,0.00,meteohub,2013-06-21 18:37:00,
2013-06-21 14:38:00,86.5,73.8,30.11,NW,315,2.0,4.0,66,0.00,,,0.00,meteohub,2013-06-21 18:38:00,
2013-06-21 14:40:00,86.5,73.8,30.11,SW,225,4.0,4.0,66,0.00,,,0.00,meteohub,2013-06-21 18:40:00,
2013-06-21 14:43:00,86.7,73.6,30.11,West,270,5.0,5.0,65,0.00,,,0.00,meteohub,2013-06-21 18:43:00,
2013-06-21 14:44:00,86.9,73.2,30.11,NW,315,4.0,4.0,64,0.00,,,0.00,meteohub,2013-06-21 18:44:00,
2013-06-21 14:45:00,87.1,73.9,30.11,SW,225,3.0,4.0,65,0.00,,,0.00,meteohub,2013-06-21 18:45:00,
2013-06-21 14:46:00,87.1,74.3,30.11,West,270,2.0,7.0,66,0.00,,,0.00,meteohub,2013-06-21 18:46:00,
2013-06-21 14:48:00,87.4,74.7,30.11,West,270,6.0,7.0,66,0.00,,,0.00,meteohub,2013-06-21 18:48:00,
2013-06-21 14:49:00,87.4,74.3,30.11,West,270,3.0,7.0,65,0.00,,,0.00,meteohub,2013-06-21 18:49:00,
2013-06-21 14:51:00,88.0,74.3,30.11,West,270,4.0,7.0,64,0.00,,,0.00,meteohub,2013-06-21 18:51:00,
2013-06-21 14:54:00,88.5,74.8,30.11,South,180,2.0,7.0,64,0.00,,,0.00,meteohub,2013-06-21 18:54:00,
2013-06-21 14:55:00,88.7,75.0,30.11,West,270,4.0,7.0,64,0.00,,,0.00,meteohub,2013-06-21 18:55:00,
2013-06-21 14:57:00,88.7,74.5,30.11,NW,315,5.0,7.0,63,0.00,,,0.00,meteohub,2013-06-21 18:57:00,
2013-06-21 14:59:00,88.9,75.2,30.11,SW,225,7.0,7.0,64,0.00,,,0.00,meteohub,2013-06-21 18:59:00,
2013-06-21 15:01:00,89.1,75.2,30.11,SW,225,5.0,11.0,64,0.00,,,0.00,meteohub,2013-06-21 19:01:00,
2013-06-21 15:02:00,89.1,75.2,30.11,SW,225,7.0,11.0,64,0.00,,,0.00,meteohub,2013-06-21 19:02:00,
2013-06-21 15:04:00,89.1,74.8,30.11,SW,225,4.0,11.0,63,0.00,,,0.00,meteohub,2013-06-21 19:04:00,
2013-06-21 15:06:00,88.9,75.2,30.11,North,0,2.0,11.0,64,0.00,,,0.00,meteohub,2013-06-21 19:06:00,
2013-06-21 15:07:00,89.1,75.7,30.11,West,270,4.0,11.0,65,0.00,,,0.00,meteohub,2013-06-21 19:07:00,
2013-06-21 15:09:00,89.2,75.4,30.10,West,270,4.0,11.0,64,0.00,,,0.00,meteohub,2013-06-21 19:09:00,
2013-06-21 15:10:00,89.4,75.6,30.11,West,270,7.0,11.0,64,0.00,,,0.00,meteohub,2013-06-21 19:10:00,
2013-06-21 15:12:00,89.6,75.7,30.10,NW,315,9.0,11.0,64,0.00,,,0.00,meteohub,2013-06-21 19:12:00,
2013-06-21 15:13:00,89.6,75.7,30.10,SW,225,6.0,11.0,64,0.00,,,0.00,meteohub,2013-06-21 19:13:00,
2013-06-21 15:15:00,89.6,75.7,30.10,NW,315,4.0,11.0,64,0.00,,,0.00,meteohub,2013-06-21 19:15:00,
2013-06-21 15:16:00,89.6,75.7,30.10,SE,135,2.0,9.0,64,0.00,,,0.00,meteohub,2013-06-21 19:16:00,
2013-06-21 15:17:00,89.6,75.7,30.10,West,270,4.0,9.0,64,0.00,,,0.00,meteohub,2013-06-21 19:17:00,
2013-06-21 15:18:00,89.6,75.7,30.10,SW,225,7.0,9.0,64,0.00,,,0.00,meteohub,2013-06-21 19:18:00,
2013-06-21 15:20:00,89.6,75.7,30.10,NW,315,3.0,9.0,64,0.00,,,0.00,meteohub,2013-06-21 19:20:00,
2013-06-21 15:22:00,89.6,75.7,30.10,SW,225,4.0,9.0,64,0.00,,,0.00,meteohub,2013-06-21 19:22:00,
2013-06-21 15:23:00,89.6,75.4,30.10,South,180,10.0,10.0,63,0.00,,,0.00,meteohub,2013-06-21 19:23:00,
2013-06-21 15:25:00,89.2,75.4,30.10,West,270,8.0,9.0,64,0.00,,,0.00,meteohub,2013-06-21 19:25:00,
2013-06-21 15:27:00,89.1,75.2,30.10,SW,225,6.0,9.0,64,0.00,,,0.00,meteohub,2013-06-21 19:27:00,
2013-06-21 15:29:00,89.1,75.7,30.10,SW,225,5.0,9.0,65,0.00,,,0.00,meteohub,2013-06-21 19:29:00,
2013-06-21 15:32:00,89.2,75.9,30.09,SE,135,1.0,10.0,65,0.00,,,0.00,meteohub,2013-06-21 19:32:00,
2013-06-21 15:33:00,89.2,75.9,30.09,SE,135,1.0,10.0,65,0.00,,,0.00,meteohub,2013-06-21 19:33:00,
2013-06-21 15:36:00,89.6,75.4,30.10,South,180,4.0,10.0,63,0.00,,,0.00,meteohub,2013-06-21 19:36:00,
2013-06-21 15:37:00,89.6,75.4,30.09,West,270,7.0,10.0,63,0.00,,,0.00,meteohub,2013-06-21 19:37:00,
2013-06-21 15:39:00,89.6,74.8,30.09,SW,225,4.0,10.0,62,0.00,,,0.00,meteohub,2013-06-21 19:39:00,
2013-06-21 15:42:00,89.6,74.8,30.09,SW,225,5.0,8.0,62,0.00,,,0.00,meteohub,2013-06-21 19:42:00,
2013-06-21 15:43:00,89.4,75.2,30.10,West,270,6.0,8.0,63,0.00,,,0.00,meteohub,2013-06-21 19:43:00,
2013-06-21 15:45:00,89.2,75.0,30.09,West,270,3.0,7.0,63,0.00,,,0.00,meteohub,2013-06-21 19:45:00,
2013-06-21 15:47:00,89.2,75.4,30.10,NW,315,3.0,7.0,64,0.00,,,0.00,meteohub,2013-06-21 19:47:00,
2013-06-21 15:48:00,89.2,75.0,30.10,NW,315,4.0,7.0,63,0.00,,,0.00,meteohub,2013-06-21 19:48:00,
2013-06-21 15:50:00,89.2,75.4,30.09,SW,225,9.0,9.0,64,0.00,,,0.00,meteohub,2013-06-21 19:50:00,
2013-06-21 15:51:00,89.2,75.0,30.09,NW,315,8.0,8.0,63,0.00,,,0.00,meteohub,2013-06-21 19:51:00,
2013-06-21 15:52:00,88.9,74.7,30.09,West,270,5.0,7.0,63,0.00,,,0.00,meteohub,2013-06-21 19:52:00,
2013-06-21 15:53:00,88.9,74.7,30.09,SW,225,8.0,8.0,63,0.00,,,0.00,meteohub,2013-06-21 19:53:00,
2013-06-21 15:56:00,88.2,74.5,30.09,NW,315,4.0,9.0,64,0.00,,,0.00,meteohub,2013-06-21 19:56:00,
2013-06-21 15:57:00,88.2,74.8,30.09,West,270,6.0,9.0,65,0.00,,,0.00,meteohub,2013-06-21 19:57:00,
2013-06-21 15:58:00,88.0,74.7,30.10,WSW,248,4.0,9.0,65,0.00,,,0.00,meteohub,2013-06-21 19:58:00,
2013-06-21 16:02:00,87.6,74.8,30.09,West,270,4.0,9.0,66,0.00,,,0.00,meteohub,2013-06-21 20:02:00,
2013-06-21 16:04:00,87.4,74.7,30.09,West,270,8.0,9.0,66,0.00,,,0.00,meteohub,2013-06-21 20:04:00,
2013-06-21 16:05:00,87.4,75.2,30.09,NW,315,4.0,9.0,67,0.00,,,0.00,meteohub,2013-06-21 20:05:00,
2013-06-21 16:07:00,87.3,75.0,30.09,South,180,3.0,9.0,67,0.00,,,0.00,meteohub,2013-06-21 20:07:00,
2013-06-21 16:09:00,87.3,75.0,30.09,West,270,3.0,9.0,67,0.00,,,0.00,meteohub,2013-06-21 20:09:00,
2013-06-21 16:12:00,87.4,74.7,30.09,West,270,7.0,8.0,66,0.00,,,0.00,meteohub,2013-06-21 20:12:00,
2013-06-21 16:13:00,87.4,74.3,30.09,West,270,6.0,8.0,65,0.00,,,0.00,meteohub,2013-06-21 20:13:00,
2013-06-21 16:14:00,87.3,74.1,30.09,SW,225,5.0,8.0,65,0.00,,,0.00,meteohub,2013-06-21 20:14:00,
2013-06-21 16:15:00,87.3,74.1,30.09,WNW,293,8.0,8.0,65,0.00,,,0.00,meteohub,2013-06-21 20:15:00,
2013-06-21 16:16:00,87.3,74.1,30.09,WNW,293,8.0,8.0,65,0.00,,,0.00,meteohub,2013-06-21 20:16:00,
2013-06-21 16:19:00,87.4,74.3,30.09,NW,315,4.0,8.0,65,0.00,,,0.00,meteohub,2013-06-21 20:19:00,
2013-06-21 16:22:00,87.4,74.7,30.09,NW,315,4.0,8.0,66,0.00,,,0.00,meteohub,2013-06-21 20:22:00,
2013-06-21 16:24:00,87.6,74.3,30.09,West,270,5.0,8.0,65,0.00,,,0.00,meteohub,2013-06-21 20:24:00,
2013-06-21 16:27:00,87.8,74.1,30.09,North,0,5.0,8.0,64,0.00,,,0.00,meteohub,2013-06-21 20:27:00,
2013-06-21 16:29:00,87.8,74.1,30.09,SW,225,8.0,8.0,64,0.00,,,0.00,meteohub,2013-06-21 20:29:00,
2013-06-21 16:30:00,88.0,74.3,30.09,West,270,4.0,8.0,64,0.00,,,0.00,meteohub,2013-06-21 20:30:00,
2013-06-21 16:32:00,88.0,74.3,30.09,West,270,6.0,8.0,64,0.00,,,0.00,meteohub,2013-06-21 20:32:00,
2013-06-21 16:33:00,88.0,74.3,30.09,NW,315,7.0,8.0,64,0.00,,,0.00,meteohub,2013-06-21 20:33:00,
2013-06-21 16:35:00,88.3,75.0,30.09,West,270,3.0,8.0,65,0.00,,,0.00,meteohub,2013-06-21 20:35:00,
2013-06-21 16:38:00,88.9,75.6,30.09,West,270,5.0,8.0,65,0.00,,,0.00,meteohub,2013-06-21 20:38:00,
2013-06-21 16:40:00,88.9,75.6,30.09,West,270,5.0,8.0,65,0.00,,,0.00,meteohub,2013-06-21 20:40:00,
2013-06-21 16:41:00,88.9,75.6,30.09,West,270,4.0,8.0,65,0.00,,,0.00,meteohub,2013-06-21 20:41:00,
2013-06-21 16:46:00,88.9,74.7,30.09,West,270,5.0,7.0,63,0.00,,,0.00,meteohub,2013-06-21 20:46:00,
2013-06-21 16:49:00,88.9,74.7,30.09,SW,225,5.0,7.0,63,0.00,,,0.00,meteohub,2013-06-21 20:49:00,
2013-06-21 16:50:00,88.7,74.5,30.09,West,270,4.0,5.0,63,0.00,,,0.00,meteohub,2013-06-21 20:50:00,
2013-06-21 16:51:00,88.7,74.5,30.09,SW,225,2.0,5.0,63,0.00,,,0.00,meteohub,2013-06-21 20:51:00,
2013-06-21 16:52:00,88.5,74.8,30.09,West,270,4.0,5.0,64,0.00,,,0.00,meteohub,2013-06-21 20:52:00,
2013-06-21 16:55:00,88.7,75.0,30.09,West,270,4.0,5.0,64,0.00,,,0.00,meteohub,2013-06-21 20:55:00,
2013-06-21 16:56:00,88.7,75.0,30.09,NW,315,4.0,5.0,64,0.00,,,0.00,meteohub,2013-06-21 20:56:00,
2013-06-21 17:00:00,89.1,74.8,30.09,North,0,2.0,5.0,63,0.00,,,0.00,meteohub,2013-06-21 21:00:00,
2013-06-21 17:01:00,89.1,74.8,30.09,NW,315,2.0,5.0,63,0.00,,,0.00,meteohub,2013-06-21 21:01:00,
2013-06-21 17:02:00,89.1,74.8,30.09,NW,315,2.0,5.0,63,0.00,,,0.00,meteohub,2013-06-21 21:02:00,
2013-06-21 17:03:00,89.1,74.8,30.09,SW,225,5.0,5.0,63,0.00,,,0.00,meteohub,2013-06-21 21:03:00,
2013-06-21 17:05:00,89.1,75.2,30.09,North,0,3.0,5.0,64,0.00,,,0.00,meteohub,2013-06-21 21:05:00,
2013-06-21 17:07:00,89.2,75.4,30.09,NW,315,2.0,5.0,64,0.00,,,0.00,meteohub,2013-06-21 21:07:00,
2013-06-21 17:09:00,89.2,75.0,30.09,West,270,4.0,5.0,63,0.00,,,0.00,meteohub,2013-06-21 21:09:00,
2013-06-21 17:10:00,89.4,74.7,30.09,SW,225,2.0,5.0,62,0.00,,,0.00,meteohub,2013-06-21 21:10:00,
2013-06-21 17:12:00,89.6,73.4,30.09,West,270,6.0,6.0,59,0.00,,,0.00,meteohub,2013-06-21 21:12:00,
2013-06-21 17:15:00,89.4,74.1,30.09,NW,315,8.0,8.0,61,0.00,,,0.00,meteohub,2013-06-21 21:15:00,
2013-06-21 17:16:00,89.2,73.9,30.09,NE,45,4.0,6.0,61,0.00,,,0.00,meteohub,2013-06-21 21:16:00,
2013-06-21 17:17:00,89.2,74.5,30.09,West,270,4.0,6.0,62,0.00,,,0.00,meteohub,2013-06-21 21:17:00,
2013-06-21 17:18:00,89.4,74.7,30.09,NW,315,3.0,6.0,62,0.00,,,0.00,meteohub,2013-06-21 21:18:00,
2013-06-21 17:20:00,89.6,72.9,30.08,SW,225,6.0,8.0,58,0.00,,,0.00,meteohub,2013-06-21 21:20:00,
2013-06-21 17:21:00,89.6,73.4,30.09,SW,225,6.0,8.0,59,0.00,,,0.00,meteohub,2013-06-21 21:21:00,
2013-06-21 17:22:00,89.6,73.4,30.09,SW,225,5.0,8.0,59,0.00,,,0.00,meteohub,2013-06-21 21:22:00,
2013-06-21 17:24:00,89.6,73.4,30.09,West,270,4.0,8.0,59,0.00,,,0.00,meteohub,2013-06-21 21:24:00,
2013-06-21 17:26:00,89.6,74.3,30.09,NW,315,3.0,8.0,61,0.00,,,0.00,meteohub,2013-06-21 21:26:00,
2013-06-21 17:29:00,89.6,73.9,30.09,SW,225,4.0,8.0,60,0.00,,,0.00,meteohub,2013-06-21 21:29:00,
2013-06-21 17:31:00,89.6,73.9,30.09,North,0,3.0,6.0,60,0.00,,,0.00,meteohub,2013-06-21 21:31:00,
2013-06-21 17:32:00,89.6,74.3,30.09,NW,315,2.0,6.0,61,0.00,,,0.00,meteohub,2013-06-21 21:32:00,
2013-06-21 17:33:00,89.6,74.3,30.09,South,180,4.0,6.0,61,0.00,,,0.00,meteohub,2013-06-21 21:33:00,
2013-06-21 17:35:00,90.0,74.7,30.10,SW,225,8.0,8.0,61,0.00,,,0.00,meteohub,2013-06-21 21:35:00,
2013-06-21 17:37:00,90.0,72.7,30.10,SW,225,8.0,8.0,57,0.00,,,0.00,meteohub,2013-06-21 21:37:00,
2013-06-21 17:38:00,89.6,72.3,30.10,SW,225,8.0,8.0,57,0.00,,,0.00,meteohub,2013-06-21 21:38:00,
2013-06-21 17:39:00,89.4,72.1,30.10,West,270,4.0,6.0,57,0.00,,,0.00,meteohub,2013-06-21 21:39:00,
2013-06-21 17:40:00,89.4,72.1,30.10,SW,225,5.0,6.0,57,0.00,,,0.00,meteohub,2013-06-21 21:40:00,
2013-06-21 17:47:00,89.2,73.6,30.10,WSW,248,8.0,8.0,60,0.00,,,0.00,meteohub,2013-06-21 21:47:00,
2013-06-21 17:52:00,89.2,74.5,30.10,NW,315,2.0,11.0,62,0.00,,,0.00,meteohub,2013-06-21 21:52:00,
2013-06-21 17:55:00,89.4,74.7,30.10,West,270,6.0,11.0,62,0.00,,,0.00,meteohub,2013-06-21 21:55:00,
2013-06-21 17:56:00,89.2,74.5,30.10,NW,315,4.0,11.0,62,0.00,,,0.00,meteohub,2013-06-21 21:56:00,
2013-06-21 17:57:00,89.2,74.5,30.10,NW,315,4.0,11.0,62,0.00,,,0.00,meteohub,2013-06-21 21:57:00,
2013-06-21 17:58:00,89.2,74.5,30.09,NW,315,2.0,11.0,62,0.00,,,0.00,meteohub,2013-06-21 21:58:00,
2013-06-21 17:59:00,89.2,74.5,30.10,West,270,3.0,11.0,62,0.00,,,0.00,meteohub,2013-06-21 21:59:00,
2013-06-21 18:02:00,89.2,74.5,30.10,West,270,6.0,11.0,62,0.00,,,0.00,meteohub,2013-06-21 22:02:00,
2013-06-21 18:04:00,89.1,75.2,30.10,West,270,4.0,11.0,64,0.00,,,0.00,meteohub,2013-06-21 22:04:00,
2013-06-21 18:05:00,89.1,75.2,30.10,West,270,4.0,11.0,64,0.00,,,0.00,meteohub,2013-06-21 22:05:00,
2013-06-21 18:07:00,89.1,75.7,30.10,NW,315,5.0,8.0,65,0.00,,,0.00,meteohub,2013-06-21 22:07:00,
2013-06-21 18:10:00,88.7,75.9,30.11,NW,315,5.0,8.0,66,0.00,,,0.00,meteohub,2013-06-21 22:10:00,
2013-06-21 18:12:00,88.5,75.7,30.11,West,270,3.0,8.0,66,0.00,,,0.00,meteohub,2013-06-21 22:12:00,
2013-06-21 18:13:00,88.5,75.2,30.10,SW,225,2.0,8.0,65,0.00,,,0.00,meteohub,2013-06-21 22:13:00,
2013-06-21 18:14:00,88.5,75.2,30.10,South,180,4.0,8.0,65,0.00,,,0.00,meteohub,2013-06-21 22:14:00,
2013-06-21 18:15:00,88.5,75.2,30.10,SW,225,2.0,8.0,65,0.00,,,0.00,meteohub,2013-06-21 22:15:00,
2013-06-21 18:16:00,88.5,75.2,30.10,NE,45,3.0,8.0,65,0.00,,,0.00,meteohub,2013-06-21 22:16:00,
2013-06-21 18:18:00,88.5,75.2,30.10,West,270,4.0,8.0,65,0.00,,,0.00,meteohub,2013-06-21 22:18:00,
2013-06-21 18:19:00,88.3,75.0,30.10,NW,315,4.0,8.0,65,0.00,,,0.00,meteohub,2013-06-21 22:19:00,
2013-06-21 18:21:00,88.2,74.8,30.09,North,0,3.0,8.0,65,0.00,,,0.00,meteohub,2013-06-21 22:21:00,
2013-06-21 18:23:00,88.2,74.8,30.09,NW,315,2.0,8.0,65,0.00,,,0.00,meteohub,2013-06-21 22:23:00,
2013-06-21 18:24:00,88.2,75.4,30.09,SW,225,4.0,8.0,66,0.00,,,0.00,meteohub,2013-06-21 22:24:00,
2013-06-21 18:25:00,88.0,75.2,30.10,West,270,2.0,5.0,66,0.00,,,0.00,meteohub,2013-06-21 22:25:00,
2013-06-21 18:27:00,88.0,75.2,30.10,SW,225,2.0,5.0,66,0.00,,,0.00,meteohub,2013-06-21 22:27:00,
2013-06-21 18:28:00,88.0,75.6,30.10,SW,225,2.0,5.0,67,0.00,,,0.00,meteohub,2013-06-21 22:28:00,
2013-06-21 18:29:00,88.0,75.6,30.10,NW,315,2.0,5.0,67,0.00,,,0.00,meteohub,2013-06-21 22:29:00,
2013-06-21 18:31:00,88.0,75.6,30.10,NW,315,3.0,4.0,67,0.00,,,0.00,meteohub,2013-06-21 22:31:00,
2013-06-21 18:33:00,87.8,75.4,30.10,NW,315,4.0,4.0,67,0.00,,,0.00,meteohub,2013-06-21 22:33:00,
2013-06-21 18:34:00,87.6,75.7,30.10,NW,315,1.0,4.0,68,0.00,,,0.00,meteohub,2013-06-21 22:34:00,
2013-06-21 18:35:00,87.4,75.2,30.10,NW,315,2.0,4.0,67,0.00,,,0.00,meteohub,2013-06-21 22:35:00,
2013-06-21 18:37:00,87.4,75.6,30.11,South,180,1.0,4.0,68,0.00,,,0.00,meteohub,2013-06-21 22:37:00,
2013-06-21 18:39:00,87.3,75.4,30.11,West,270,3.0,4.0,68,0.00,,,0.00,meteohub,2013-06-21 22:39:00,
2013-06-21 18:40:00,87.3,75.9,30.10,North,0,4.0,4.0,69,0.00,,,0.00,meteohub,2013-06-21 22:40:00,
2013-06-21 18:42:00,87.1,76.1,30.11,West,270,8.0,8.0,70,0.00,,,0.00,meteohub,2013-06-21 22:42:00,
2013-06-21 18:43:00,87.1,76.5,30.11,West,270,7.0,7.0,71,0.00,,,0.00,meteohub,2013-06-21 22:43:00,
2013-06-21 18:45:00,86.9,76.8,30.11,NW,315,2.0,8.0,72,0.00,,,0.00,meteohub,2013-06-21 22:45:00,
2013-06-21 18:47:00,86.9,76.8,30.10,NW,315,3.0,8.0,72,0.00,,,0.00,meteohub,2013-06-21 22:47:00,
2013-06-21 18:48:00,86.9,76.3,30.11,NE,45,2.0,8.0,71,0.00,,,0.00,meteohub,2013-06-21 22:48:00,
2013-06-21 18:49:00,86.9,76.3,30.11,NE,45,2.0,8.0,71,0.00,,,0.00,meteohub,2013-06-21 22:49:00,
2013-06-21 18:51:00,86.9,76.3,30.10,North,0,3.0,8.0,71,0.00,,,0.00,meteohub,2013-06-21 22:51:00,
2013-06-21 18:52:00,86.9,76.3,30.10,North,0,1.0,8.0,71,0.00,,,0.00,meteohub,2013-06-21 22:52:00,
2013-06-21 18:54:00,86.9,76.8,30.11,SW,225,5.0,8.0,72,0.00,,,0.00,meteohub,2013-06-21 22:54:00,
2013-06-21 18:55:00,86.9,76.3,30.11,SE,135,3.0,8.0,71,0.00,,,0.00,meteohub,2013-06-21 22:55:00,
2013-06-21 18:57:00,86.7,76.1,30.12,East,90,3.0,8.0,71,0.00,,,0.00,meteohub,2013-06-21 22:57:00,
2013-06-21 19:00:00,86.4,75.0,30.12,SE,135,4.0,6.0,69,0.00,,,0.00,meteohub,2013-06-21 23:00:00,
2013-06-21 19:01:00,86.2,74.3,30.12,SE,135,6.0,6.0,68,0.00,,,0.00,meteohub,2013-06-21 23:01:00,
2013-06-21 19:02:00,85.8,73.9,30.11,SE,135,3.0,6.0,68,0.00,,,0.00,meteohub,2013-06-21 23:02:00,
2013-06-21 19:03:00,85.5,73.8,30.12,NE,45,2.0,6.0,68,0.00,,,0.00,meteohub,2013-06-21 23:03:00,
2013-06-21 19:06:00,84.4,72.7,30.12,SE,135,4.0,6.0,68,0.00,,,0.00,meteohub,2013-06-21 23:06:00,
2013-06-21 19:07:00,83.8,72.5,30.12,North,0,7.0,7.0,69,0.00,,,0.00,meteohub,2013-06-21 23:07:00,
2013-06-21 19:08:00,83.8,72.5,30.12,North,0,7.0,7.0,69,0.00,,,0.00,meteohub,2013-06-21 23:08:00,
2013-06-21 19:10:00,82.9,72.1,30.12,SW,225,2.0,6.0,70,0.00,,,0.00,meteohub,2013-06-21 23:10:00,
2013-06-21 19:12:00,82.6,71.8,30.12,SE,135,5.0,10.0,70,0.00,,,0.00,meteohub,2013-06-21 23:12:00,
2013-06-21 19:13:00,81.9,72.0,30.12,NE,45,6.0,10.0,72,0.00,,,0.00,meteohub,2013-06-21 23:13:00,
2013-06-21 19:14:00,81.7,72.1,30.12,North,0,4.0,10.0,73,0.00,,,0.00,meteohub,2013-06-21 23:14:00,
2013-06-21 19:16:00,81.3,71.8,30.12,North,0,7.0,10.0,73,0.00,,,0.00,meteohub,2013-06-21 23:16:00,
2013-06-21 19:18:00,80.8,71.8,30.12,East,90,4.0,10.0,74,0.00,,,0.00,meteohub,2013-06-21 23:18:00,
2013-06-21 19:20:00,80.6,71.6,30.12,East,90,4.0,10.0,74,0.00,,,0.00,meteohub,2013-06-21 23:20:00,
2013-06-21 19:22:00,80.4,72.1,30.12,East,90,4.0,8.0,76,0.00,,,0.00,meteohub,2013-06-21 23:22:00,
2013-06-21 19:25:00,79.9,71.6,30.12,East,90,5.0,10.0,76,0.00,,,0.00,meteohub,2013-06-21 23:25:00,
2013-06-21 19:27:00,79.7,71.4,30.12,North,0,2.0,10.0,76,0.00,,,0.00,meteohub,2013-06-21 23:27:00,
2013-06-21 19:28:00,79.5,71.2,30.12,SE,135,6.0,10.0,76,0.00,,,0.00,meteohub,2013-06-21 23:28:00,
2013-06-21 19:29:00,79.3,71.4,30.12,NE,45,2.0,10.0,77,0.00,,,0.00,meteohub,2013-06-21 23:29:00,
2013-06-21 19:32:00,79.2,71.2,30.12,East,90,2.0,10.0,77,0.00,,,0.00,meteohub,2013-06-21 23:32:00,
2013-06-21 19:33:00,79.0,71.6,30.12,East,90,1.0,10.0,78,0.00,,,0.00,meteohub,2013-06-21 23:33:00,
2013-06-21 19:34:00,78.8,71.4,30.12,North,0,2.0,10.0,78,0.00,,,0.00,meteohub,2013-06-21 23:34:00,
2013-06-21 19:35:00,78.8,71.8,30.12,NE,45,3.0,10.0,79,0.00,,,0.00,meteohub,2013-06-21 23:35:00,
2013-06-21 19:36:00,78.6,72.0,30.13,NE,45,2.0,10.0,80,0.00,,,0.00,meteohub,2013-06-21 23:36:00,
2013-06-21 19:38:00,78.6,72.3,30.12,East,90,2.0,10.0,81,0.00,,,0.00,meteohub,2013-06-21 23:38:00,
2013-06-21 19:39:00,78.6,72.3,30.12,East,90,1.0,10.0,81,0.00,,,0.00,meteohub,2013-06-21 23:39:00,
2013-06-21 19:40:00,78.6,72.3,30.12,East,90,1.0,10.0,81,0.00,,,0.00,meteohub,2013-06-21 23:40:00,
2013-06-21 19:42:00,78.4,72.5,30.12,NE,45,2.0,7.0,82,0.00,,,0.00,meteohub,2013-06-21 23:42:00,
2013-06-21 19:44:00,78.4,72.5,30.12,South,180,2.0,7.0,82,0.00,,,0.00,meteohub,2013-06-21 23:44:00,
2013-06-21 19:45:00,78.4,72.9,30.12,North,0,1.0,7.0,83,0.00,,,0.00,meteohub,2013-06-21 23:45:00,
2013-06-21 19:46:00,78.4,72.5,30.12,North,0,3.0,3.0,82,0.00,,,0.00,meteohub,2013-06-21 23:46:00,
2013-06-21 19:50:00,78.3,72.7,30.12,NE,45,3.0,3.0,83,0.00,,,0.00,meteohub,2013-06-21 23:50:00,
2013-06-21 19:51:00,78.3,72.7,30.12,East,90,2.0,4.0,83,0.00,,,0.00,meteohub,2013-06-21 23:51:00,
2013-06-21 19:55:00,78.1,72.9,30.12,East,90,3.0,4.0,84,0.00,,,0.00,meteohub,2013-06-21 23:55:00,
2013-06-21 19:56:00,78.1,72.9,30.12,NE,45,2.0,4.0,84,0.00,,,0.00,meteohub,2013-06-21 23:56:00,
2013-06-21 19:57:00,78.1,72.9,30.12,NE,45,2.0,4.0,84,0.00,,,0.00,meteohub,2013-06-21 23:57:00,
2013-06-21 19:59:00,77.9,72.7,30.12,North,0,2.0,4.0,84,0.00,,,0.00,meteohub,2013-06-21 23:59:00,
2013-06-21 20:01:00,77.9,72.7,30.12,North,0,2.0,4.0,84,0.00,,,0.00,meteohub,2013-06-22 00:01:00,
2013-06-21 20:02:00,77.9,72.7,30.12,North,0,2.0,4.0,84,0.00,,,0.00,meteohub,2013-06-22 00:02:00,
2013-06-21 20:05:00,77.5,72.7,30.12,East,90,2.0,4.0,85,0.00,,,0.00,meteohub,2013-06-22 00:05:00,
2013-06-21 20:07:00,77.4,72.1,30.12,East,90,3.0,3.0,84,0.00,,,0.00,meteohub,2013-06-22 00:07:00,
2013-06-21 20:08:00,77.4,72.5,30.12,SE,135,3.0,3.0,85,0.00,,,0.00,meteohub,2013-06-22 00:08:00,
2013-06-21 20:10:00,77.2,72.3,30.11,East,90,2.0,3.0,85,0.00,,,0.00,meteohub,2013-06-22 00:10:00,
2013-06-21 20:12:00,77.2,72.3,30.12,NE,45,2.0,4.0,85,0.00,,,0.00,meteohub,2013-06-22 00:12:00,
2013-06-21 20:14:00,77.2,72.3,30.12,NE,45,2.0,4.0,85,0.00,,,0.00,meteohub,2013-06-22 00:14:00,
2013-06-21 20:16:00,77.0,72.5,30.12,North,0,2.0,4.0,86,0.00,,,0.00,meteohub,2013-06-22 00:16:00,
2013-06-21 20:17:00,77.0,72.5,30.12,North,0,2.0,4.0,86,0.00,,,0.00,meteohub,2013-06-22 00:17:00,
2013-06-21 20:21:00,77.0,72.5,30.12,NE,45,2.0,4.0,86,0.00,,,0.00,meteohub,2013-06-22 00:21:00,
2013-06-21 20:22:00,77.0,72.9,30.12,NE,45,2.0,4.0,87,0.00,,,0.00,meteohub,2013-06-22 00:22:00,
2013-06-21 20:23:00,77.0,72.9,30.12,NE,45,0.0,4.0,87,0.00,,,0.00,meteohub,2013-06-22 00:23:00,
2013-06-21 20:24:00,76.8,73.0,30.12,North,0,1.0,4.0,88,0.00,,,0.00,meteohub,2013-06-22 00:24:00,
2013-06-21 20:26:00,76.8,73.0,30.12,NE,45,1.0,2.0,88,0.00,,,0.00,meteohub,2013-06-22 00:26:00,
2013-06-21 20:27:00,76.6,72.9,30.12,South,180,0.0,2.0,88,0.00,,,0.00,meteohub,2013-06-22 00:27:00,
2013-06-21 20:29:00,76.6,72.9,30.12,SE,135,0.0,2.0,88,0.00,,,0.00,meteohub,2013-06-22 00:29:00,
2013-06-21 20:31:00,76.6,72.5,30.12,SE,135,0.0,2.0,87,0.00,,,0.00,meteohub,2013-06-22 00:31:00,
2013-06-21 20:32:00,76.6,72.5,30.12,SE,135,2.0,2.0,87,0.00,,,0.00,meteohub,2013-06-22 00:32:00,
2013-06-21 20:34:00,76.6,72.5,30.12,NE,45,1.0,2.0,87,0.00,,,0.00,meteohub,2013-06-22 00:34:00,
2013-06-21 20:36:00,76.6,72.5,30.12,North,0,1.0,2.0,87,0.00,,,0.00,meteohub,2013-06-22 00:36:00,
2013-06-21 20:37:00,76.6,72.5,30.12,NE,45,1.0,2.0,87,0.00,,,0.00,meteohub,2013-06-22 00:37:00,
2013-06-21 20:38:00,76.6,72.5,30.12,North,0,1.0,2.0,87,0.00,,,0.00,meteohub,2013-06-22 00:38:00,
2013-06-21 20:40:00,76.5,72.7,30.12,North,0,1.0,2.0,88,0.00,,,0.00,meteohub,2013-06-22 00:40:00,
2013-06-21 20:41:00,76.6,72.9,30.12,SE,135,1.0,2.0,88,0.00,,,0.00,meteohub,2013-06-22 00:41:00,
2013-06-21 20:42:00,76.5,72.7,30.12,SE,135,2.0,2.0,88,0.00,,,0.00,meteohub,2013-06-22 00:42:00,
2013-06-21 20:44:00,76.5,72.7,30.12,East,90,2.0,2.0,88,0.00,,,0.00,meteohub,2013-06-22 00:44:00,
2013-06-21 20:45:00,76.5,72.7,30.12,South,180,2.0,2.0,88,0.00,,,0.00,meteohub,2013-06-22 00:45:00,
2013-06-21 20:47:00,76.5,72.7,30.12,SE,135,2.0,2.0,88,0.00,,,0.00,meteohub,2013-06-22 00:47:00,
2013-06-21 20:49:00,76.5,72.7,30.12,East,90,1.0,2.0,88,0.00,,,0.00,meteohub,2013-06-22 00:49:00,
2013-06-21 20:50:00,76.5,72.7,30.12,NE,45,1.0,2.0,88,0.00,,,0.00,meteohub,2013-06-22 00:50:00,
2013-06-21 20:52:00,76.5,72.7,30.12,NE,45,2.0,3.0,88,0.00,,,0.00,meteohub,2013-06-22 00:52:00,
2013-06-21 20:54:00,76.5,72.7,30.13,SE,135,2.0,3.0,88,0.00,,,0.00,meteohub,2013-06-22 00:54:00,
2013-06-21 20:55:00,76.5,72.7,30.13,SE,135,2.0,3.0,88,0.00,,,0.00,meteohub,2013-06-22 00:55:00,
2013-06-21 20:57:00,76.3,72.9,30.13,East,90,0.0,3.0,89,0.00,,,0.00,meteohub,2013-06-22 00:57:00,
2013-06-21 21:00:00,76.5,73.0,30.12,NE,45,2.0,4.0,89,0.00,,,0.00,meteohub,2013-06-22 01:00:00,
2013-06-21 21:01:00,76.3,72.9,30.12,NE,45,2.0,4.0,89,0.00,,,0.00,meteohub,2013-06-22 01:01:00,
2013-06-21 21:02:00,76.3,72.9,30.12,NE,45,2.0,4.0,89,0.00,,,0.00,meteohub,2013-06-22 01:02:00,
2013-06-21 21:03:00,76.3,72.9,30.12,SE,135,2.0,4.0,89,0.00,,,0.00,meteohub,2013-06-22 01:03:00,
2013-06-21 21:06:00,76.3,72.9,30.12,North,0,1.0,4.0,89,0.00,,,0.00,meteohub,2013-06-22 01:06:00,
2013-06-21 21:07:00,76.3,72.9,30.12,East,90,1.0,4.0,89,0.00,,,0.00,meteohub,2013-06-22 01:07:00,
2013-06-21 21:08:00,76.3,72.9,30.12,NE,45,4.0,4.0,89,0.00,,,0.00,meteohub,2013-06-22 01:08:00,
2013-06-21 21:10:00,76.3,72.9,30.12,East,90,2.0,4.0,89,0.00,,,0.00,meteohub,2013-06-22 01:10:00,
2013-06-21 21:13:00,76.3,72.9,30.12,East,90,2.0,4.0,89,0.00,,,0.00,meteohub,2013-06-22 01:13:00,
2013-06-21 21:14:00,76.3,72.9,30.13,NW,315,1.0,4.0,89,0.00,,,0.00,meteohub,2013-06-22 01:14:00,
2013-06-21 21:15:00,76.3,72.9,30.13,North,0,0.0,4.0,89,0.00,,,0.00,meteohub,2013-06-22 01:15:00,
2013-06-21 21:17:00,76.3,72.9,30.13,North,0,1.0,4.0,89,0.00,,,0.00,meteohub,2013-06-22 01:17:00,
2013-06-21 21:20:00,76.3,72.9,30.13,North,0,0.0,4.0,89,0.00,,,0.00,meteohub,2013-06-22 01:20:00,
2013-06-21 21:22:00,76.3,72.9,30.13,North,0,0.0,4.0,89,0.00,,,0.00,meteohub,2013-06-22 01:22:00,
2013-06-21 21:23:00,76.3,72.9,30.13,NE,45,2.0,4.0,89,0.00,,,0.00,meteohub,2013-06-22 01:23:00,
2013-06-21 21:25:00,76.3,72.9,30.13,North,0,0.0,4.0,89,0.00,,,0.00,meteohub,2013-06-22 01:25:00,
2013-06-21 21:26:00,76.3,73.0,30.13,North,0,0.0,2.0,90,0.00,,,0.00,meteohub,2013-06-22 01:26:00,
2013-06-21 21:27:00,76.5,73.2,30.13,North,0,0.0,2.0,90,0.00,,,0.00,meteohub,2013-06-22 01:27:00,
2013-06-21 21:32:00,76.3,73.0,30.13,East,90,2.0,2.0,90,0.00,,,0.00,meteohub,2013-06-22 01:32:00,
2013-06-21 21:33:00,76.3,73.0,30.13,North,0,1.0,2.0,90,0.00,,,0.00,meteohub,2013-06-22 01:33:00,
2013-06-21 21:35:00,76.3,73.0,30.13,East,90,1.0,2.0,90,0.00,,,0.00,meteohub,2013-06-22 01:35:00,
2013-06-21 21:37:00,76.3,73.0,30.13,NE,45,1.0,2.0,90,0.00,,,0.00,meteohub,2013-06-22 01:37:00,
2013-06-21 21:38:00,76.3,73.0,30.13,NE,45,1.0,2.0,90,0.00,,,0.00,meteohub,2013-06-22 01:38:00,
2013-06-21 21:39:00,76.3,73.0,30.13,NE,45,2.0,2.0,90,0.00,,,0.00,meteohub,2013-06-22 01:39:00,
2013-06-21 21:40:00,76.3,73.0,30.13,North,0,1.0,2.0,90,0.00,,,0.00,meteohub,2013-06-22 01:40:00,
2013-06-21 21:41:00,76.3,73.0,30.13,North,0,2.0,2.0,90,0.00,,,0.00,meteohub,2013-06-22 01:41:00,
2013-06-21 21:43:00,76.3,73.0,30.13,North,0,0.0,2.0,90,0.00,,,0.00,meteohub,2013-06-22 01:43:00,
2013-06-21 21:47:00,76.3,73.0,30.13,NW,315,0.0,2.0,90,0.00,,,0.00,meteohub,2013-06-22 01:47:00,
2013-06-21 21:49:00,76.3,73.4,30.13,NW,315,0.0,2.0,91,0.00,,,0.00,meteohub,2013-06-22 01:49:00,
2013-06-21 21:50:00,76.3,73.4,30.14,NW,315,1.0,2.0,91,0.00,,,0.00,meteohub,2013-06-22 01:50:00,
2013-06-21 21:52:00,76.3,73.4,30.13,East,90,2.0,2.0,91,0.00,,,0.00,meteohub,2013-06-22 01:52:00,
2013-06-21 21:54:00,76.3,73.4,30.13,SE,135,2.0,2.0,91,0.00,,,0.00,meteohub,2013-06-22 01:54:00,
2013-06-21 21:56:00,76.3,73.4,30.13,East,90,2.0,3.0,91,0.00,,,0.00,meteohub,2013-06-22 01:56:00,
2013-06-21 21:57:00,76.3,73.4,30.13,East,90,2.0,3.0,91,0.00,,,0.00,meteohub,2013-06-22 01:57:00,
2013-06-21 21:58:00,76.3,73.4,30.13,NE,45,1.0,3.0,91,0.00,,,0.00,meteohub,2013-06-22 01:58:00,
2013-06-21 21:59:00,76.3,73.4,30.13,NW,315,1.0,3.0,91,0.00,,,0.00,meteohub,2013-06-22 01:59:00,
2013-06-21 22:00:00,76.3,73.4,30.13,East,90,1.0,3.0,91,0.00,,,0.00,meteohub,2013-06-22 02:00:00,
2013-06-21 22:02:00,76.3,73.4,30.13,SE,135,1.0,3.0,91,0.00,,,0.00,meteohub,2013-06-22 02:02:00,
2013-06-21 22:03:00,76.3,73.4,30.13,NE,45,2.0,3.0,91,0.00,,,0.00,meteohub,2013-06-22 02:03:00,
2013-06-21 22:04:00,76.3,73.4,30.13,NE,45,2.0,3.0,91,0.00,,,0.00,meteohub,2013-06-22 02:04:00,
2013-06-21 22:06:00,76.3,73.8,30.13,East,90,1.0,3.0,92,0.00,,,0.00,meteohub,2013-06-22 02:06:00,
2013-06-21 22:07:00,76.3,73.8,30.13,NE,45,2.0,3.0,92,0.00,,,0.00,meteohub,2013-06-22 02:07:00,
2013-06-21 22:08:00,76.1,73.6,30.13,South,180,1.0,3.0,92,0.00,,,0.00,meteohub,2013-06-22 02:08:00,
2013-06-21 22:09:00,76.1,73.6,30.13,North,0,1.0,3.0,92,0.00,,,0.00,meteohub,2013-06-22 02:09:00,
2013-06-21 22:11:00,76.1,73.6,30.13,NE,45,2.0,2.0,92,0.00,,,0.00,meteohub,2013-06-22 02:11:00,
2013-06-21 22:12:00,76.1,73.6,30.13,NE,45,2.0,2.0,92,0.00,,,0.00,meteohub,2013-06-22 02:12:00,
2013-06-21 22:13:00,76.1,73.6,30.13,North,0,1.0,2.0,92,0.00,,,0.00,meteohub,2013-06-22 02:13:00,
2013-06-21 22:14:00,76.1,73.6,30.13,North,0,1.0,2.0,92,0.00,,,0.00,meteohub,2013-06-22 02:14:00,
2013-06-21 22:16:00,76.1,73.6,30.13,North,0,0.0,2.0,92,0.00,,,0.00,meteohub,2013-06-22 02:16:00,
2013-06-21 22:17:00,76.1,73.6,30.13,North,0,0.0,2.0,92,0.00,,,0.00,meteohub,2013-06-22 02:17:00,
2013-06-21 22:19:00,76.1,73.6,30.13,East,90,1.0,2.0,92,0.00,,,0.00,meteohub,2013-06-22 02:19:00,
2013-06-21 22:21:00,76.1,73.6,30.13,North,0,0.0,2.0,92,0.00,,,0.00,meteohub,2013-06-22 02:21:00,
2013-06-21 22:23:00,76.1,73.6,30.13,NE,45,1.0,2.0,92,0.00,,,0.00,meteohub,2013-06-22 02:23:00,
2013-06-21 22:24:00,76.1,73.9,30.14,East,90,1.0,2.0,93,0.00,,,0.00,meteohub,2013-06-22 02:24:00,
2013-06-21 22:25:00,76.1,73.9,30.13,East,90,1.0,2.0,93,0.00,,,0.00,meteohub,2013-06-22 02:25:00,
2013-06-21 22:26:00,76.1,73.9,30.14,East,90,1.0,2.0,93,0.00,,,0.00,meteohub,2013-06-22 02:26:00,
2013-06-21 22:28:00,76.1,73.9,30.14,NE,45,1.0,2.0,93,0.00,,,0.00,meteohub,2013-06-22 02:28:00,
2013-06-21 22:31:00,76.1,73.9,30.14,East,90,2.0,2.0,93,0.00,,,0.00,meteohub,2013-06-22 02:31:00,
2013-06-21 22:32:00,76.1,73.9,30.13,East,90,1.0,2.0,93,0.00,,,0.00,meteohub,2013-06-22 02:32:00,
2013-06-21 22:33:00,76.1,73.9,30.14,East,90,0.0,2.0,93,0.00,,,0.00,meteohub,2013-06-22 02:33:00,
2013-06-21 22:36:00,76.1,73.9,30.14,East,90,0.0,2.0,93,0.00,,,0.00,meteohub,2013-06-22 02:36:00,
2013-06-21 22:37:00,76.1,73.9,30.14,East,90,0.0,2.0,93,0.00,,,0.00,meteohub,2013-06-22 02:37:00,
2013-06-21 22:39:00,76.1,73.9,30.13,East,90,0.0,2.0,93,0.00,,,0.00,meteohub,2013-06-22 02:39:00,
2013-06-21 22:41:00,76.1,73.9,30.13,East,90,0.0,2.0,93,0.00,,,0.00,meteohub,2013-06-22 02:41:00,
2013-06-21 22:42:00,76.1,73.9,30.13,East,90,0.0,2.0,93,0.00,,,0.00,meteohub,2013-06-22 02:42:00,
2013-06-21 22:43:00,76.1,73.9,30.13,NE,45,2.0,2.0,93,0.00,,,0.00,meteohub,2013-06-22 02:43:00,
2013-06-21 22:47:00,76.1,73.9,30.13,NE,45,2.0,2.0,93,0.00,,,0.00,meteohub,2013-06-22 02:47:00,
2013-06-21 22:49:00,76.1,73.9,30.13,East,90,0.0,2.0,93,0.00,,,0.00,meteohub,2013-06-22 02:49:00,
2013-06-21 22:50:00,76.1,73.9,30.13,East,90,0.0,2.0,93,0.00,,,0.00,meteohub,2013-06-22 02:50:00,
2013-06-21 22:51:00,76.1,73.9,30.13,NE,45,1.0,2.0,93,0.00,,,0.00,meteohub,2013-06-22 02:51:00,
2013-06-21 22:54:00,76.1,73.9,30.13,NE,45,0.0,2.0,93,0.00,,,0.00,meteohub,2013-06-22 02:54:00,
2013-06-21 22:55:00,76.1,73.9,30.14,NE,45,0.0,2.0,93,0.00,,,0.00,meteohub,2013-06-22 02:55:00,
2013-06-21 22:57:00,76.1,73.9,30.14,North,0,0.0,2.0,93,0.00,,,0.00,meteohub,2013-06-22 02:57:00,
2013-06-21 22:59:00,76.1,73.9,30.13,SE,135,2.0,2.0,93,0.00,,,0.00,meteohub,2013-06-22 02:59:00,
2013-06-21 23:00:00,76.1,73.9,30.13,SE,135,0.0,2.0,93,0.00,,,0.00,meteohub,2013-06-22 03:00:00,
2013-06-21 23:01:00,76.1,73.9,30.13,East,90,1.0,2.0,93,0.00,,,0.00,meteohub,2013-06-22 03:01:00,
2013-06-21 23:04:00,76.1,73.9,30.13,NE,45,0.0,2.0,93,0.00,,,0.00,meteohub,2013-06-22 03:04:00,
2013-06-21 23:05:00,76.1,73.9,30.14,East,90,2.0,2.0,93,0.00,,,0.00,meteohub,2013-06-22 03:05:00,
2013-06-21 23:06:00,76.1,73.9,30.14,East,90,2.0,2.0,93,0.00,,,0.00,meteohub,2013-06-22 03:06:00,
2013-06-21 23:07:00,76.3,74.1,30.14,North,0,1.0,2.0,93,0.00,,,0.00,meteohub,2013-06-22 03:07:00,
2013-06-21 23:10:00,76.3,74.1,30.14,North,0,2.0,2.0,93,0.00,,,0.00,meteohub,2013-06-22 03:10:00,
2013-06-21 23:12:00,76.3,74.1,30.14,NE,45,0.0,2.0,93,0.00,,,0.00,meteohub,2013-06-22 03:12:00,
2013-06-21 23:13:00,76.3,74.1,30.14,SE,135,0.0,2.0,93,0.00,,,0.00,meteohub,2013-06-22 03:13:00,
2013-06-21 23:15:00,76.3,74.1,30.14,SE,135,0.0,2.0,93,0.00,,,0.00,meteohub,2013-06-22 03:15:00,
2013-06-21 23:16:00,76.3,74.1,30.14,SE,135,0.0,2.0,93,0.00,,,0.00,meteohub,2013-06-22 03:16:00,
2013-06-21 23:17:00,76.3,74.1,30.14,SE,135,0.0,2.0,93,0.00,,,0.00,meteohub,2013-06-22 03:17:00,
2013-06-21 23:18:00,76.3,74.1,30.14,East,90,1.0,2.0,93,0.00,,,0.00,meteohub,2013-06-22 03:18:00,
2013-06-21 23:22:00,76.3,74.1,30.14,WNW,293,2.0,2.0,93,0.00,,,0.00,meteohub,2013-06-22 03:22:00,
2013-06-21 23:23:00,76.3,74.1,30.14,NE,45,0.0,2.0,93,0.00,,,0.00,meteohub,2013-06-22 03:23:00,
2013-06-21 23:24:00,76.3,74.1,30.14,NE,45,0.0,2.0,93,0.00,,,0.00,meteohub,2013-06-22 03:24:00,
2013-06-21 23:26:00,76.3,74.1,30.14,East,90,2.0,2.0,93,0.00,,,0.00,meteohub,2013-06-22 03:26:00,
2013-06-21 23:29:00,76.3,74.1,30.14,East,90,1.0,2.0,93,0.00,,,0.00,meteohub,2013-06-22 03:29:00,
2013-06-21 23:30:00,76.3,74.1,30.14,East,90,1.0,2.0,93,0.00,,,0.00,meteohub,2013-06-22 03:30:00,
2013-06-21 23:33:00,76.3,74.1,30.14,NE,45,0.0,2.0,93,0.00,,,0.00,meteohub,2013-06-22 03:33:00,
2013-06-21 23:34:00,76.3,74.1,30.14,East,90,0.0,2.0,93,0.00,,,0.00,meteohub,2013-06-22 03:34:00,
2013-06-21 23:35:00,76.3,74.1,30.14,NE,45,0.0,2.0,93,0.00,,,0.00,meteohub,2013-06-22 03:35:00,
2013-06-21 23:36:00,76.3,74.1,30.14,NE,45,0.0,2.0,93,0.00,,,0.00,meteohub,2013-06-22 03:36:00,
2013-06-21 23:40:00,76.5,74.3,30.14,NE,45,0.0,2.0,93,0.00,,,0.00,meteohub,2013-06-22 03:40:00,
2013-06-21 23:41:00,76.5,74.3,30.14,NE,45,0.0,2.0,93,0.00,,,0.00,meteohub,2013-06-22 03:41:00,
2013-06-21 23:42:00,76.3,74.1,30.14,NE,45,0.0,2.0,93,0.00,,,0.00,meteohub,2013-06-22 03:42:00,
2013-06-21 23:46:00,76.3,74.1,30.14,NE,45,0.0,2.0,93,0.00,,,0.00,meteohub,2013-06-22 03:46:00,
2013-06-21 23:47:00,76.5,74.3,30.14,NE,45,0.0,2.0,93,0.00,,,0.00,meteohub,2013-06-22 03:47:00,
2013-06-21 23:48:00,76.3,74.1,30.14,NE,45,0.0,2.0,93,0.00,,,0.00,meteohub,2013-06-22 03:48:00,
2013-06-21 23:49:00,76.3,74.1,30.14,NE,45,0.0,2.0,93,0.00,,,0.00,meteohub,2013-06-22 03:49:00,
2013-06-21 23:52:00,76.3,74.1,30.14,East,90,0.0,0.0,93,0.00,,,0.00,meteohub,2013-06-22 03:52:00,
2013-06-21 23:53:00,76.3,74.1,30.14,East,90,0.0,0.0,93,0.00,,,0.00,meteohub,2013-06-22 03:53:00,
2013-06-21 23:54:00,76.3,74.1,30.14,East,90,0.0,0.0,93,0.00,,,0.00,meteohub,2013-06-22 03:54:00,
2013-06-21 23:57:00,76.3,74.1,30.15,East,90,0.0,0.0,93,0.00,,,0.00,meteohub,2013-06-22 03:57:00,
2013-06-21 23:58:00,76.3,74.1,30.14,East,90,0.0,0.0,93,0.00,,,0.00,meteohub,2013-06-22 03:58:00,
2013-06-21 23:59:00,76.3,74.1,30.15,East,90,2.0,0.0,93,0.00,,,0.00,meteohub,2013-06-22 03:59:00,